| time (UTC) | temp F | wind direction | speed MPH | gust MPH | rain 1hr in | rain 24hr in | rain mn in | humidity % | barometer mb |
| 20260905004505 | 73 | 289 | 0.0 | 0.0 | 0.00 | 0.82 | 0.69 | 97 | 1011.0 |
| 20260905004358 | 73 | 289 | 0.0 | 1.0 | 0.00 | 0.82 | 0.69 | 97 | 1011.1 |
| 20260905004255 | 73 | 289 | 0.0 | 1.0 | 0.00 | 0.82 | 0.69 | 97 | 1011.0 |
| 20260905004152 | 73 | 289 | 0.0 | 1.0 | 0.00 | 0.82 | 0.69 | 97 | 1011.1 |
| 20260905004048 | 73 | 289 | 0.0 | 1.0 | 0.00 | 0.82 | 0.69 | 97 | 1011.1 |
| 20260905003943 | 73 | 289 | 0.0 | 1.0 | 0.00 | 0.82 | 0.69 | 97 | 1011.1 |
| 20260905003836 | 73 | 289 | 0.0 | 1.0 | 0.00 | 0.82 | 0.69 | 97 | 1011.2 |
| 20260905003732 | 73 | 289 | 0.0 | 1.0 | 0.00 | 0.82 | 0.69 | 97 | 1011.3 |
| 20260905003625 | 73 | 289 | 0.0 | 1.0 | 0.00 | 0.82 | 0.69 | 97 | 1011.3 |
| 20260905003258 | 73 | 289 | 0.0 | 1.0 | 0.00 | 0.82 | 0.69 | 97 | 1011.4 |
| 20260905003151 | 73 | 289 | 0.0 | 1.0 | 0.00 | 0.82 | 0.69 | 97 | 1011.4 |
| 20260905002827 | 73 | 66 | 0.0 | 0.0 | 0.00 | 0.82 | 0.69 | 97 | 1011.4 |
| 20260905002248 | 73 | 66 | 0.0 | 0.0 | 0.00 | 0.82 | 0.69 | 97 | 1011.2 |
| 20260905002146 | 73 | 66 | 0.0 | 0.0 | 0.00 | 0.82 | 0.69 | 97 | 1011.2 |
| 20260905001823 | 73 | 66 | 0.0 | 0.0 | 0.00 | 0.82 | 0.69 | 97 | 1011.1 |
| 20260905001719 | 73 | 66 | 0.0 | 0.0 | 0.00 | 0.82 | 0.69 | 97 | 1011.1 |
| 20260905001611 | 73 | 66 | 0.0 | 0.0 | 0.00 | 0.82 | 0.69 | 97 | 1011.0 |
| 20260905001505 | 73 | 66 | 0.0 | 0.0 | 0.00 | 0.82 | 0.69 | 97 | 1011.0 |
| 20260905001400 | 73 | 66 | 0.0 | 0.0 | 0.00 | 0.82 | 0.69 | 97 | 1011.0 |
| 20260905001252 | 73 | 66 | 0.0 | 0.0 | 0.00 | 0.82 | 0.69 | 97 | 1011.0 |
| 20260905000929 | 73 | 66 | 0.0 | 0.0 | 0.00 | 0.82 | 0.69 | 97 | 1011.0 |
| 20260905000827 | 73 | 66 | 0.0 | 0.0 | 0.00 | 0.82 | 0.69 | 97 | 1011.1 |
| 20260905000722 | 73 | 66 | 0.0 | 0.0 | 0.00 | 0.82 | 0.69 | 97 | 1011.1 |
| 20260905000617 | 73 | 66 | 0.0 | 0.0 | 0.00 | 0.82 | 0.69 | 97 | 1011.1 |
| 20260905000512 | 73 | 66 | 0.0 | 0.0 | 0.00 | 0.82 | 0.69 | 97 | 1011.1 |
| 20260905000145 | 73 | 66 | 0.0 | 0.0 | 0.00 | 0.82 | 0.69 | 97 | 1011.0 |
| 20260905000041 | 73 | 66 | 0.0 | 0.0 | 0.00 | 0.82 | 0.69 | 97 | 1011.0 |
| 20260904235456 | 73 | 66 | 0.0 | 0.0 | 0.00 | 0.82 | 0.69 | 97 | 1011.2 |
| 20260904235350 | 73 | 66 | 0.0 | 0.0 | 0.00 | 0.82 | 0.69 | 97 | 1011.2 |
| 20260904235246 | 73 | 66 | 0.0 | 0.0 | 0.00 | 0.82 | 0.69 | 97 | 1011.2 |
| 20260904234923 | 73 | 66 | 0.0 | 0.0 | 0.00 | 0.82 | 0.69 | 97 | 1011.2 |
| 20260904234819 | 73 | 66 | 0.0 | 0.0 | 0.00 | 0.82 | 0.69 | 97 | 1011.1 |
| 20260904234714 | 73 | 66 | 0.0 | 0.0 | 0.00 | 0.82 | 0.69 | 97 | 1011.1 |
| 20260904234607 | 73 | 66 | 0.0 | 0.0 | 0.00 | 0.82 | 0.69 | 97 | 1011.1 |
| 20260904234504 | 73 | 66 | 0.0 | 0.0 | 0.00 | 0.82 | 0.69 | 97 | 1011.1 |
| 20260904233922 | 73 | 66 | 0.0 | 0.0 | 0.00 | 0.82 | 0.69 | 97 | 1011.3 |
| 20260904233818 | 73 | 66 | 0.0 | 0.0 | 0.00 | 0.82 | 0.69 | 97 | 1011.3 |
| 20260904233450 | 73 | 66 | 0.0 | 0.0 | 0.00 | 0.82 | 0.69 | 97 | 1011.3 |
| 20260904233344 | 73 | 66 | 0.0 | 0.0 | 0.00 | 0.82 | 0.69 | 97 | 1011.3 |
| 20260904233238 | 73 | 66 | 0.0 | 0.0 | 0.00 | 0.82 | 0.69 | 97 | 1011.3 |
| 20260904233132 | 73 | 66 | 0.0 | 0.0 | 0.00 | 0.82 | 0.69 | 97 | 1011.3 |
| 20260904233029 | 73 | 66 | 0.0 | 0.0 | 0.00 | 0.82 | 0.69 | 97 | 1011.3 |
| 20260904232921 | 73 | 66 | 0.0 | 0.0 | 0.00 | 0.82 | 0.69 | 97 | 1011.4 |
| 20260904232818 | 73 | 66 | 0.0 | 0.0 | 0.00 | 0.82 | 0.69 | 97 | 1011.4 |
| 20260904232450 | 73 | 66 | 0.0 | 0.0 | 0.00 | 0.82 | 0.69 | 97 | 1011.5 |
| 20260904232345 | 73 | 66 | 0.0 | 0.0 | 0.00 | 0.82 | 0.69 | 97 | 1011.5 |
| 20260904232239 | 73 | 66 | 0.0 | 0.0 | 0.00 | 0.82 | 0.69 | 97 | 1011.5 |
| 20260904232136 | 73 | 66 | 0.0 | 0.0 | 0.00 | 0.82 | 0.69 | 97 | 1011.5 |
| 20260904232029 | 73 | 66 | 0.0 | 0.0 | 0.00 | 0.82 | 0.69 | 97 | 1011.5 |
| 20260904231925 | 73 | 66 | 0.0 | 0.0 | 0.00 | 0.82 | 0.69 | 97 | 1011.4 |
| 20260904231823 | 73 | 66 | 0.0 | 0.0 | 0.00 | 0.82 | 0.69 | 97 | 1011.4 |
| 20260904231720 | 73 | 66 | 0.0 | 0.0 | 0.00 | 0.82 | 0.69 | 97 | 1011.4 |
| 20260904231613 | 73 | 66 | 0.0 | 0.0 | 0.00 | 0.82 | 0.69 | 97 | 1011.3 |
| 20260904231508 | 73 | 66 | 0.0 | 0.0 | 0.00 | 0.82 | 0.69 | 97 | 1011.3 |
| 20260904231402 | 73 | 66 | 0.0 | 0.0 | 0.00 | 0.82 | 0.69 | 97 | 1011.2 |
| 20260904231038 | 73 | 157 | 0.0 | 0.0 | 0.00 | 0.82 | 0.69 | 97 | 1011.2 |
| 20260904230711 | 73 | 157 | 0.0 | 1.0 | 0.00 | 0.82 | 0.69 | 97 | 1011.4 |
| 20260904230604 | 73 | 157 | 0.0 | 1.0 | 0.00 | 0.82 | 0.69 | 97 | 1011.4 |
| 20260904230459 | 73 | 157 | 0.0 | 1.0 | 0.00 | 0.82 | 0.69 | 97 | 1011.5 |
| 20260904230356 | 73 | 157 | 0.0 | 1.0 | 0.00 | 0.82 | 0.69 | 97 | 1011.5 |
| 20260904230254 | 73 | 72 | 0.0 | 0.0 | 0.00 | 0.82 | 0.69 | 97 | 1011.5 |
| 20260904230147 | 73 | 99 | 0.0 | 0.0 | 0.00 | 0.82 | 0.69 | 97 | 1011.4 |
| 20260904230042 | 73 | 5 | 0.0 | 0.0 | 0.00 | 0.82 | 0.69 | 97 | 1011.4 |
| 20260904225935 | 72 | 274 | 0.0 | 0.0 | 0.00 | 0.82 | 0.69 | 97 | 1011.4 |
| 20260904225832 | 72 | 274 | 0.0 | 0.0 | 0.00 | 0.82 | 0.69 | 97 | 1011.4 |
| 20260904225727 | 72 | 274 | 0.0 | 0.0 | 0.00 | 0.82 | 0.69 | 97 | 1011.3 |
| 20260904225620 | 72 | 274 | 0.0 | 0.0 | 0.00 | 0.82 | 0.69 | 97 | 1011.2 |
| 20260904225039 | 72 | 71 | 0.0 | 0.0 | 0.00 | 0.82 | 0.69 | 97 | 1011.0 |
| 20260904224937 | 72 | 88 | 0.0 | 0.0 | 0.00 | 0.82 | 0.69 | 97 | 1010.9 |
| 20260904224616 | 72 | 88 | 0.0 | 0.0 | 0.00 | 0.82 | 0.69 | 97 | 1010.8 |
| 20260904224251 | 72 | 88 | 0.0 | 0.0 | 0.00 | 0.82 | 0.69 | 97 | 1011.1 |
| 20260904224144 | 72 | 24 | 0.0 | 0.0 | 0.00 | 0.82 | 0.69 | 97 | 1011.1 |
| 20260904224040 | 72 | 24 | 0.0 | 0.0 | 0.00 | 0.82 | 0.69 | 97 | 1011.2 |
| 20260904223720 | 72 | 24 | 0.0 | 0.0 | 0.00 | 0.82 | 0.69 | 97 | 1011.2 |
| 20260904223618 | 72 | 24 | 0.0 | 0.0 | 0.00 | 0.82 | 0.69 | 97 | 1011.1 |
| 20260904223512 | 72 | 24 | 0.0 | 0.0 | 0.00 | 0.82 | 0.69 | 97 | 1011.0 |
| 20260904223407 | 72 | 24 | 0.0 | 0.0 | 0.00 | 0.82 | 0.69 | 97 | 1011.0 |
| 20260904223303 | 72 | 24 | 0.0 | 0.0 | 0.00 | 0.82 | 0.69 | 97 | 1010.9 |
| 20260904223155 | 72 | 24 | 0.0 | 0.0 | 0.00 | 0.82 | 0.69 | 97 | 1010.9 |
| 20260904223047 | 72 | 24 | 0.0 | 0.0 | 0.00 | 0.82 | 0.69 | 97 | 1010.9 |
| 20260904222942 | 72 | 24 | 0.0 | 0.0 | 0.00 | 0.82 | 0.69 | 97 | 1010.9 |
| 20260904222834 | 72 | 24 | 0.0 | 0.0 | 0.00 | 0.82 | 0.69 | 97 | 1011.0 |
| 20260904222512 | 72 | 24 | 0.0 | 0.0 | 0.00 | 0.82 | 0.69 | 97 | 1011.0 |
| 20260904222405 | 72 | 24 | 0.0 | 0.0 | 0.00 | 0.82 | 0.69 | 97 | 1011.1 |
| 20260904222306 | 72 | 24 | 0.0 | 0.0 | 0.00 | 0.82 | 0.69 | 97 | 1011.1 |
| 20260904222157 | 72 | 24 | 0.0 | 0.0 | 0.00 | 0.82 | 0.69 | 97 | 1011.1 |
| 20260904222049 | 72 | 24 | 0.0 | 0.0 | 0.00 | 0.82 | 0.69 | 97 | 1011.1 |
| 20260904221944 | 72 | 24 | 0.0 | 0.0 | 0.00 | 0.82 | 0.69 | 97 | 1011.1 |
| 20260904221839 | 72 | 24 | 0.0 | 0.0 | 0.00 | 0.82 | 0.69 | 97 | 1011.0 |
| 20260904221733 | 72 | 24 | 0.0 | 0.0 | 0.00 | 0.82 | 0.69 | 97 | 1011.0 |
| 20260904221628 | 72 | 24 | 0.0 | 0.0 | 0.00 | 0.82 | 0.69 | 97 | 1011.0 |
| 20260904221520 | 72 | 24 | 0.0 | 0.0 | 0.00 | 0.82 | 0.69 | 97 | 1011.0 |
| 20260904221414 | 72 | 24 | 0.0 | 0.0 | 0.00 | 0.82 | 0.69 | 97 | 1011.0 |
| 20260904221311 | 72 | 24 | 0.0 | 0.0 | 0.00 | 0.82 | 0.69 | 97 | 1011.0 |
| 20260904221207 | 72 | 24 | 0.0 | 0.0 | 0.00 | 0.82 | 0.69 | 97 | 1011.0 |
| 20260904221059 | 72 | 24 | 0.0 | 0.0 | 0.00 | 0.82 | 0.69 | 97 | 1011.1 |
| 20260904220515 | 72 | 54 | 0.0 | 2.0 | 0.00 | 0.82 | 0.69 | 97 | 1011.4 |
| 20260904220411 | 72 | 54 | 0.0 | 2.0 | 0.00 | 0.82 | 0.69 | 97 | 1011.4 |
| 20260904220308 | 72 | 167 | 0.0 | 0.0 | 0.00 | 0.82 | 0.69 | 97 | 1011.4 |
| 20260904215725 | 72 | 167 | 0.0 | 0.0 | 0.00 | 0.82 | 0.69 | 97 | 1011.6 |
| 20260904215620 | 72 | 167 | 0.0 | 0.0 | 0.00 | 0.82 | 0.69 | 97 | 1011.7 |
| 20260904215517 | 72 | 167 | 0.0 | 0.0 | 0.00 | 0.82 | 0.69 | 97 | 1011.7 |
| 20260904215411 | 72 | 167 | 0.0 | 0.0 | 0.00 | 0.82 | 0.69 | 97 | 1011.8 |
| 20260904215305 | 72 | 161 | 0.0 | 0.0 | 0.00 | 0.82 | 0.69 | 97 | 1011.9 |
| 20260904215156 | 71 | 161 | 0.0 | 0.0 | 0.00 | 0.82 | 0.69 | 97 | 1012.0 |
| 20260904215051 | 72 | 196 | 0.0 | 0.0 | 0.00 | 0.82 | 0.69 | 97 | 1012.0 |
| 20260904214947 | 72 | 107 | 0.0 | 0.0 | 0.00 | 0.82 | 0.69 | 97 | 1012.0 |
| 20260904214402 | 71 | 171 | 0.0 | 1.0 | 0.00 | 0.82 | 0.69 | 97 | 1012.1 |
| 20260904214259 | 71 | 106 | 0.0 | 0.0 | 0.00 | 0.82 | 0.69 | 97 | 1012.1 |
| 20260904213931 | 71 | 252 | 0.0 | 1.0 | 0.00 | 0.82 | 0.69 | 97 | 1012.2 |
| 20260904213823 | 71 | 252 | 0.0 | 1.0 | 0.00 | 0.82 | 0.69 | 97 | 1012.2 |
| 20260904213455 | 71 | 197 | 0.0 | 1.0 | 0.00 | 0.82 | 0.69 | 97 | 1012.1 |
| 20260904213348 | 71 | 111 | 0.0 | 1.0 | 0.00 | 0.82 | 0.69 | 97 | 1012.1 |
| 20260904213019 | 71 | 215 | 0.0 | 1.0 | 0.00 | 0.82 | 0.69 | 97 | 1012.1 |
| 20260904212914 | 70 | 238 | 0.0 | 0.0 | 0.00 | 0.82 | 0.69 | 97 | 1012.1 |
| 20260904212808 | 70 | 238 | 0.0 | 0.0 | 0.00 | 0.82 | 0.69 | 97 | 1012.1 |
| 20260904212704 | 70 | 238 | 0.0 | 0.0 | 0.00 | 0.82 | 0.69 | 97 | 1012.1 |
| 20260904212340 | 70 | 238 | 0.0 | 0.0 | 0.00 | 0.82 | 0.69 | 96 | 1011.9 |
| 20260904212236 | 70 | 238 | 0.0 | 0.0 | 0.00 | 0.82 | 0.69 | 96 | 1011.8 |
| 20260904211909 | 70 | 238 | 0.0 | 0.0 | 0.00 | 0.82 | 0.69 | 97 | 1011.8 |
| 20260904211804 | 70 | 238 | 0.0 | 0.0 | 0.00 | 0.82 | 0.69 | 96 | 1011.9 |
| 20260904211657 | 70 | 238 | 0.0 | 0.0 | 0.00 | 0.82 | 0.69 | 96 | 1011.9 |
| 20260904211551 | 70 | 238 | 0.0 | 0.0 | 0.00 | 0.82 | 0.69 | 96 | 1012.0 |
| 20260904211446 | 70 | 238 | 0.0 | 1.0 | 0.00 | 0.82 | 0.69 | 96 | 1012.1 |
| 20260904211119 | 69 | 316 | 0.0 | 1.0 | 0.00 | 0.82 | 0.69 | 96 | 1012.0 |
| 20260904211013 | 69 | 316 | 0.0 | 1.0 | 0.00 | 0.82 | 0.69 | 96 | 1012.0 |
| 20260904210907 | 69 | 316 | 0.0 | 0.0 | 0.00 | 0.81 | 0.69 | 96 | 1012.0 |
| 20260904210804 | 69 | 316 | 0.0 | 0.0 | 0.00 | 0.81 | 0.69 | 96 | 1011.9 |
| 20260904210702 | 69 | 316 | 0.0 | 2.0 | 0.00 | 0.81 | 0.68 | 96 | 1011.8 |
| 20260904210558 | 69 | 316 | 0.0 | 2.0 | 0.00 | 0.81 | 0.68 | 96 | 1011.8 |
| 20260904210234 | 69 | 316 | 0.0 | 2.0 | 0.00 | 0.81 | 0.68 | 96 | 1011.7 |
| 20260904210128 | 69 | 316 | 0.0 | 2.0 | 0.00 | 0.81 | 0.68 | 96 | 1011.8 |
| 20260904210023 | 69 | 316 | 0.0 | 2.0 | 0.00 | 0.81 | 0.68 | 96 | 1011.8 |
| 20260904205917 | 69 | 316 | 0.0 | 2.0 | 0.00 | 0.81 | 0.68 | 96 | 1011.8 |
| 20260904205811 | 69 | 315 | 0.0 | 2.0 | 0.00 | 0.81 | 0.68 | 96 | 1011.8 |
| 20260904205705 | 69 | 316 | 0.0 | 1.0 | 0.00 | 0.81 | 0.68 | 96 | 1011.9 |
| 20260904205116 | 68 | 316 | 0.0 | 1.0 | 0.00 | 0.81 | 0.68 | 95 | 1012.2 |
| 20260904205010 | 68 | 316 | 0.0 | 1.0 | 0.00 | 0.81 | 0.68 | 95 | 1012.3 |
| 20260904204906 | 68 | 316 | 0.0 | 1.0 | 0.00 | 0.81 | 0.68 | 95 | 1012.3 |
| 20260904204759 | 68 | 316 | 0.0 | 1.0 | 0.00 | 0.81 | 0.68 | 95 | 1012.3 |
| 20260904204656 | 68 | 316 | 0.0 | 0.0 | 0.00 | 0.81 | 0.68 | 95 | 1012.3 |
| 20260904204549 | 68 | 316 | 0.0 | 0.0 | 0.00 | 0.81 | 0.68 | 95 | 1012.3 |
| 20260904204441 | 68 | 304 | 0.0 | 0.0 | 0.00 | 0.81 | 0.68 | 95 | 1012.3 |
| 20260904204336 | 68 | 304 | 0.0 | 2.0 | 0.00 | 0.81 | 0.68 | 95 | 1012.3 |
| 20260904204231 | 68 | 304 | 0.0 | 2.0 | 0.00 | 0.81 | 0.68 | 95 | 1012.4 |
| 20260904204128 | 68 | 23 | 0.0 | 2.0 | 0.04 | 0.81 | 0.68 | 95 | 1012.3 |
| 20260904204021 | 68 | 0 | 0.0 | 2.0 | 0.04 | 0.81 | 0.68 | 95 | 1012.4 |
| 20260904203916 | 68 | 304 | 0.0 | 2.0 | 0.04 | 0.81 | 0.68 | 95 | 1012.4 |
| 20260904203552 | 68 | 325 | 0.0 | 2.0 | 0.06 | 0.81 | 0.68 | 94 | 1011.9 |
| 20260904203446 | 69 | 180 | 0.0 | 1.0 | 0.06 | 0.81 | 0.68 | 95 | 1011.8 |
| 20260904203338 | 68 | 180 | 0.0 | 19.0 | 0.06 | 0.81 | 0.68 | 94 | 1011.7 |
| 20260904202753 | 69 | 180 | 1.0 | 19.0 | 0.21 | 0.81 | 0.68 | 94 | 1011.8 |
| 20260904202431 | 69 | 174 | 2.0 | 19.0 | 0.66 | 0.79 | 0.67 | 93 | 1012.1 |
| 20260904202326 | 69 | 174 | 2.0 | 19.0 | 0.77 | 0.78 | 0.66 | 92 | 1012.2 |
| 20260904201957 | 69 | 191 | 4.0 | 19.0 | 1.05 | 0.73 | 0.62 | 89 | 1012.5 |
| 20260904201411 | 72 | 128 | 5.0 | 19.0 | 4.40 | 0.52 | 0.46 | 86 | 1013.5 |
| 20260904201308 | 73 | 11 | 5.0 | 16.0 | 2.61 | 0.47 | 0.42 | 85 | 1014.1 |
| 20260904201003 | 77 | 225 | 4.0 | 16.0 | 2.40 | 0.33 | 0.27 | 82 | 1013.4 |
| 20260904200858 | 78 | 329 | 3.0 | 15.0 | 1.77 | 0.30 | 0.21 | 81 | 1013.3 |
| 20260904200530 | 81 | 294 | 2.0 | 14.0 | 0.00 | 0.24 | 0.10 | 80 | 1013.7 |
| 20260904200427 | 82 | 219 | 1.0 | 14.0 | 0.00 | 0.24 | 0.10 | 85 | 1013.9 |
| 20260904200325 | 82 | 323 | 1.0 | 9.0 | 0.00 | 0.24 | 0.10 | 86 | 1013.9 |
| 20260904200218 | 82 | 276 | 0.0 | 9.0 | 0.00 | 0.24 | 0.10 | 87 | 1013.8 |
| 20260904200112 | 82 | 285 | 0.0 | 3.0 | 0.00 | 0.24 | 0.10 | 85 | 1013.3 |
| 20260904200005 | 82 | 290 | 0.0 | 2.0 | 0.00 | 0.24 | 0.10 | 85 | 1012.5 |
| 20260904195637 | 82 | 327 | 0.0 | 1.0 | 0.00 | 0.24 | 0.10 | 84 | 1012.1 |
| 20260904195533 | 82 | 327 | 0.0 | 0.0 | 0.00 | 0.24 | 0.10 | 84 | 1012.0 |
| 20260904195430 | 82 | 327 | 0.0 | 0.0 | 0.00 | 0.24 | 0.10 | 84 | 1012.0 |
| 20260904195327 | 82 | 327 | 0.0 | 0.0 | 0.00 | 0.24 | 0.10 | 83 | 1012.0 |
| 20260904195003 | 82 | 327 | 0.0 | 0.0 | 0.00 | 0.24 | 0.10 | 85 | 1011.7 |
| 20260904194856 | 82 | 327 | 0.0 | 0.0 | 0.00 | 0.24 | 0.10 | 86 | 1011.7 |
| 20260904194303 | 83 | 327 | 0.0 | 0.0 | 0.00 | 0.24 | 0.10 | 85 | 1011.1 |
| 20260904194156 | 83 | 327 | 0.0 | 0.0 | 0.00 | 0.24 | 0.10 | 84 | 1011.1 |
| 20260904194050 | 83 | 327 | 0.0 | 0.0 | 0.00 | 0.24 | 0.10 | 83 | 1011.1 |
| 20260904193947 | 83 | 327 | 0.0 | 0.0 | 0.00 | 0.24 | 0.10 | 82 | 1011.1 |
| 20260904193844 | 83 | 327 | 0.0 | 0.0 | 0.00 | 0.24 | 0.10 | 83 | 1011.1 |
| 20260904193741 | 83 | 327 | 0.0 | 0.0 | 0.00 | 0.24 | 0.10 | 83 | 1011.1 |
| 20260904193634 | 84 | 327 | 0.0 | 0.0 | 0.00 | 0.24 | 0.10 | 83 | 1011.2 |
| 20260904193527 | 84 | 327 | 0.0 | 0.0 | 0.00 | 0.24 | 0.10 | 83 | 1011.3 |
| 20260904193203 | 84 | 327 | 0.0 | 0.0 | 0.00 | 0.24 | 0.10 | 82 | 1011.4 |
| 20260904192839 | 84 | 327 | 0.0 | 0.0 | 0.00 | 0.24 | 0.10 | 82 | 1011.4 |
| 20260904192737 | 84 | 327 | 0.0 | 0.0 | 0.00 | 0.24 | 0.10 | 81 | 1011.4 |
| 20260904192635 | 84 | 327 | 0.0 | 0.0 | 0.00 | 0.24 | 0.10 | 80 | 1011.5 |
| 20260904192310 | 84 | 327 | 0.0 | 1.0 | 0.00 | 0.24 | 0.10 | 80 | 1011.6 |
| 20260904192206 | 84 | 327 | 0.0 | 1.0 | 0.00 | 0.24 | 0.10 | 79 | 1011.7 |
| 20260904191841 | 84 | 327 | 0.0 | 1.0 | 0.00 | 0.24 | 0.10 | 77 | 1011.7 |
| 20260904191733 | 85 | 327 | 0.0 | 1.0 | 0.00 | 0.24 | 0.10 | 76 | 1011.7 |
| 20260904191630 | 85 | 327 | 0.0 | 0.0 | 0.00 | 0.24 | 0.10 | 76 | 1011.7 |
| 20260904191527 | 85 | 327 | 0.0 | 0.0 | 0.00 | 0.24 | 0.10 | 76 | 1011.6 |
| 20260904191422 | 85 | 327 | 0.0 | 0.0 | 0.00 | 0.24 | 0.10 | 76 | 1011.6 |
| 20260904191318 | 85 | 327 | 0.0 | 0.0 | 0.00 | 0.24 | 0.10 | 75 | 1011.6 |
| 20260904191213 | 85 | 327 | 0.0 | 0.0 | 0.00 | 0.24 | 0.10 | 75 | 1011.7 |
| 20260904191108 | 85 | 327 | 0.0 | 0.0 | 0.00 | 0.24 | 0.10 | 75 | 1011.6 |
| 20260904190741 | 86 | 327 | 0.0 | 1.0 | 0.00 | 0.24 | 0.10 | 74 | 1011.6 |
| 20260904190635 | 86 | 304 | 0.0 | 1.0 | 0.00 | 0.24 | 0.10 | 74 | 1011.6 |
| 20260904190533 | 86 | 216 | 0.0 | 1.0 | 0.00 | 0.24 | 0.10 | 73 | 1011.6 |
| 20260904190426 | 86 | 216 | 0.0 | 1.0 | 0.00 | 0.24 | 0.10 | 74 | 1011.6 |
| 20260904190322 | 86 | 216 | 0.0 | 1.0 | 0.00 | 0.24 | 0.10 | 73 | 1011.6 |
| 20260904185959 | 87 | 218 | 0.0 | 1.0 | 0.00 | 0.24 | 0.10 | 73 | 1011.5 |
| 20260904185853 | 87 | 157 | 0.0 | 1.0 | 0.00 | 0.24 | 0.10 | 73 | 1011.5 |
| 20260904185750 | 87 | 227 | 0.0 | 1.0 | 0.00 | 0.24 | 0.10 | 69 | 1011.4 |
| 20260904185642 | 87 | 274 | 0.0 | 1.0 | 0.00 | 0.24 | 0.10 | 70 | 1011.3 |
| 20260904185540 | 87 | 5 | 0.0 | 1.0 | 0.00 | 0.24 | 0.10 | 71 | 1011.3 |
| 20260904185432 | 87 | 5 | 0.0 | 1.0 | 0.00 | 0.24 | 0.10 | 69 | 1011.3 |
| 20260904185325 | 88 | 63 | 0.0 | 1.0 | 0.00 | 0.24 | 0.10 | 68 | 1011.3 |
| 20260904185220 | 88 | 177 | 0.0 | 1.0 | 0.00 | 0.24 | 0.10 | 68 | 1011.4 |
| 20260904185118 | 88 | 207 | 0.0 | 1.0 | 0.00 | 0.24 | 0.10 | 66 | 1011.3 |
| 20260904185013 | 88 | 209 | 0.0 | 1.0 | 0.00 | 0.24 | 0.10 | 67 | 1011.4 |
| 20260904184908 | 87 | 234 | 0.0 | 1.0 | 0.00 | 0.24 | 0.10 | 68 | 1011.5 |
| 20260904184803 | 87 | 40 | 0.0 | 1.0 | 0.00 | 0.24 | 0.10 | 69 | 1011.6 |
| 20260904184658 | 87 | 159 | 0.0 | 1.0 | 0.00 | 0.24 | 0.10 | 68 | 1011.6 |
| 20260904184555 | 88 | 193 | 0.0 | 1.0 | 0.00 | 0.24 | 0.10 | 70 | 1011.6 |
| 20260904184451 | 88 | 229 | 0.0 | 1.0 | 0.00 | 0.24 | 0.10 | 72 | 1011.7 |
| 20260904184344 | 88 | 228 | 0.0 | 1.0 | 0.00 | 0.24 | 0.10 | 72 | 1011.7 |
| 20260904184240 | 88 | 200 | 0.0 | 1.0 | 0.00 | 0.24 | 0.10 | 72 | 1011.8 |
| 20260904184136 | 88 | 262 | 0.0 | 1.0 | 0.00 | 0.24 | 0.10 | 68 | 1011.8 |
| 20260904184034 | 88 | 179 | 0.0 | 1.0 | 0.00 | 0.24 | 0.10 | 68 | 1011.8 |
| 20260904183930 | 88 | 222 | 0.0 | 1.0 | 0.00 | 0.24 | 0.10 | 66 | 1011.8 |
| 20260904183824 | 89 | 237 | 0.0 | 3.0 | 0.00 | 0.24 | 0.10 | 66 | 1011.8 |
| 20260904183715 | 89 | 264 | 0.0 | 3.0 | 0.00 | 0.24 | 0.10 | 66 | 1011.9 |
| 20260904183609 | 89 | 117 | 0.0 | 3.0 | 0.00 | 0.24 | 0.10 | 66 | 1011.9 |
| 20260904183506 | 88 | 78 | 0.0 | 3.0 | 0.00 | 0.24 | 0.10 | 65 | 1012.0 |
| 20260904183403 | 88 | 80 | 0.0 | 3.0 | 0.00 | 0.24 | 0.10 | 70 | 1012.0 |
| 20260904183258 | 88 | 54 | 0.0 | 3.0 | 0.00 | 0.24 | 0.10 | 75 | 1012.1 |
| 20260904183151 | 87 | 329 | 0.0 | 3.0 | 0.00 | 0.24 | 0.10 | 73 | 1012.1 |
| 20260904182830 | 87 | 355 | 0.0 | 3.0 | 0.00 | 0.24 | 0.10 | 74 | 1012.1 |
| 20260904182511 | 87 | 75 | 0.0 | 3.0 | 0.00 | 0.24 | 0.10 | 72 | 1012.1 |
| 20260904182408 | 87 | 160 | 0.0 | 3.0 | 0.00 | 0.24 | 0.10 | 71 | 1012.1 |
| 20260904182306 | 88 | 230 | 0.0 | 3.0 | 0.00 | 0.24 | 0.10 | 69 | 1012.2 |
| 20260904182203 | 88 | 355 | 0.0 | 3.0 | 0.00 | 0.24 | 0.10 | 68 | 1012.2 |
| 20260904182056 | 88 | 180 | 0.0 | 3.0 | 0.00 | 0.24 | 0.10 | 68 | 1012.2 |
| 20260904181952 | 88 | 69 | 0.0 | 3.0 | 0.00 | 0.24 | 0.10 | 71 | 1012.3 |
| 20260904181849 | 88 | 63 | 0.0 | 3.0 | 0.00 | 0.24 | 0.10 | 68 | 1012.3 |
| 20260904181747 | 88 | 267 | 0.0 | 2.0 | 0.00 | 0.24 | 0.10 | 69 | 1012.3 |
| 20260904181641 | 88 | 235 | 0.0 | 2.0 | 0.00 | 0.24 | 0.10 | 67 | 1012.3 |
| 20260904181315 | 88 | 131 | 0.0 | 2.0 | 0.00 | 0.24 | 0.10 | 65 | 1012.3 |
| 20260904181211 | 88 | 131 | 0.0 | 2.0 | 0.00 | 0.24 | 0.10 | 64 | 1012.4 |
| 20260904181108 | 89 | 120 | 0.0 | 2.0 | 0.00 | 0.24 | 0.10 | 63 | 1012.4 |
| 20260904181003 | 89 | 120 | 0.0 | 2.0 | 0.00 | 0.24 | 0.10 | 63 | 1012.5 |
| 20260904180900 | 89 | 117 | 0.0 | 2.0 | 0.00 | 0.24 | 0.10 | 63 | 1012.4 |
| 20260904180754 | 89 | 65 | 0.0 | 2.0 | 0.00 | 0.24 | 0.10 | 63 | 1012.5 |
| 20260904180425 | 88 | 49 | 0.0 | 2.0 | 0.00 | 0.24 | 0.10 | 66 | 1012.5 |
| 20260904180317 | 88 | 71 | 0.0 | 2.0 | 0.00 | 0.24 | 0.10 | 67 | 1012.5 |
| 20260904180210 | 88 | 71 | 0.0 | 2.0 | 0.00 | 0.24 | 0.10 | 69 | 1012.6 |
| 20260904175623 | 88 | 97 | 0.0 | 2.0 | 0.00 | 0.24 | 0.10 | 72 | 1012.6 |
| 20260904175301 | 88 | 46 | 0.0 | 2.0 | 0.00 | 0.24 | 0.10 | 69 | 1012.6 |
| 20260904175155 | 88 | 44 | 0.0 | 4.0 | 0.00 | 0.24 | 0.10 | 69 | 1012.7 |
| 20260904175053 | 88 | 103 | 0.0 | 4.0 | 0.00 | 0.24 | 0.10 | 69 | 1012.6 |
| 20260904174950 | 88 | 59 | 0.0 | 4.0 | 0.00 | 0.24 | 0.10 | 68 | 1012.6 |
| 20260904174846 | 88 | 107 | 1.0 | 4.0 | 0.00 | 0.24 | 0.10 | 67 | 1012.7 |
| 20260904174744 | 88 | 65 | 1.0 | 4.0 | 0.00 | 0.24 | 0.10 | 68 | 1012.7 |
| 20260904174640 | 88 | 173 | 1.0 | 4.0 | 0.00 | 0.24 | 0.10 | 68 | 1012.7 |
| 20260904174314 | 87 | 17 | 0.0 | 4.0 | 0.00 | 0.24 | 0.10 | 69 | 1012.7 |
| 20260904174210 | 87 | 12 | 1.0 | 4.0 | 0.00 | 0.24 | 0.10 | 70 | 1012.7 |
| 20260904174105 | 87 | 210 | 0.0 | 4.0 | 0.00 | 0.24 | 0.10 | 70 | 1012.7 |
| 20260904174000 | 87 | 217 | 0.0 | 4.0 | 0.00 | 0.24 | 0.10 | 70 | 1012.7 |
| 20260904173635 | 87 | 290 | 0.0 | 4.0 | 0.00 | 0.24 | 0.10 | 71 | 1012.7 |
| 20260904173530 | 87 | 61 | 0.0 | 4.0 | 0.00 | 0.24 | 0.10 | 69 | 1012.7 |
| 20260904173425 | 87 | 61 | 0.0 | 4.0 | 0.00 | 0.24 | 0.10 | 69 | 1012.7 |
| 20260904173104 | 87 | 223 | 0.0 | 3.0 | 0.00 | 0.24 | 0.10 | 70 | 1012.8 |
| 20260904172959 | 87 | 207 | 0.0 | 3.0 | 0.00 | 0.24 | 0.10 | 71 | 1012.8 |
| 20260904172630 | 87 | 26 | 1.0 | 4.0 | 0.00 | 0.24 | 0.10 | 72 | 1012.8 |
| 20260904172527 | 87 | 22 | 1.0 | 4.0 | 0.00 | 0.24 | 0.10 | 72 | 1012.8 |
| 20260904172425 | 87 | 5 | 1.0 | 4.0 | 0.00 | 0.24 | 0.10 | 71 | 1012.9 |
| 20260904172318 | 87 | 273 | 1.0 | 4.0 | 0.00 | 0.24 | 0.10 | 69 | 1012.8 |
| 20260904172210 | 88 | 221 | 1.0 | 4.0 | 0.00 | 0.24 | 0.10 | 66 | 1012.8 |
| 20260904172105 | 88 | 223 | 1.0 | 4.0 | 0.00 | 0.24 | 0.10 | 66 | 1012.8 |
| 20260904172001 | 88 | 229 | 1.0 | 4.0 | 0.00 | 0.24 | 0.10 | 68 | 1012.8 |
| 20260904171853 | 88 | 115 | 1.0 | 4.0 | 0.00 | 0.24 | 0.10 | 67 | 1012.8 |
| 20260904171748 | 87 | 49 | 1.0 | 4.0 | 0.00 | 0.24 | 0.10 | 70 | 1012.9 |
| 20260904171643 | 87 | 15 | 1.0 | 4.0 | 0.00 | 0.24 | 0.10 | 70 | 1013.0 |
| 20260904171537 | 87 | 26 | 1.0 | 4.0 | 0.00 | 0.24 | 0.10 | 72 | 1013.0 |
| 20260904171432 | 87 | 124 | 1.0 | 4.0 | 0.00 | 0.24 | 0.10 | 70 | 1013.0 |
| 20260904171325 | 87 | 157 | 0.0 | 4.0 | 0.00 | 0.24 | 0.10 | 69 | 1013.0 |
| 20260904171220 | 87 | 86 | 0.0 | 4.0 | 0.00 | 0.24 | 0.10 | 70 | 1013.0 |
| 20260904171118 | 87 | 334 | 0.0 | 4.0 | 0.00 | 0.24 | 0.10 | 72 | 1013.0 |
| 20260904171014 | 87 | 265 | 0.0 | 4.0 | 0.00 | 0.24 | 0.10 | 73 | 1013.0 |
| 20260904170909 | 87 | 45 | 0.0 | 4.0 | 0.00 | 0.24 | 0.10 | 67 | 1013.1 |
| 20260904170806 | 87 | 172 | 0.0 | 4.0 | 0.00 | 0.24 | 0.10 | 71 | 1013.1 |
| 20260904170003 | 87 | 223 | 0.0 | 2.0 | 0.00 | 0.24 | 0.10 | 69 | 1013.2 |
| 20260904165859 | 87 | 302 | 0.0 | 2.0 | 0.00 | 0.24 | 0.10 | 70 | 1013.2 |
| 20260904165757 | 87 | 282 | 0.0 | 2.0 | 0.00 | 0.24 | 0.10 | 71 | 1013.2 |
| 20260904165651 | 87 | 120 | 0.0 | 2.0 | 0.00 | 0.24 | 0.10 | 72 | 1013.2 |
| 20260904165331 | 86 | 9 | 1.0 | 2.0 | 0.00 | 0.24 | 0.10 | 71 | 1013.2 |
| 20260904165228 | 86 | 271 | 1.0 | 2.0 | 0.00 | 0.24 | 0.10 | 75 | 1013.2 |
| 20260904165121 | 86 | 355 | 1.0 | 2.0 | 0.00 | 0.24 | 0.10 | 72 | 1013.3 |
| 20260904165013 | 86 | 325 | 1.0 | 3.0 | 0.00 | 0.24 | 0.10 | 72 | 1013.3 |
| 20260904164908 | 86 | 34 | 1.0 | 3.0 | 0.00 | 0.24 | 0.10 | 72 | 1013.2 |
| 20260904164805 | 86 | 58 | 1.0 | 3.0 | 0.00 | 0.24 | 0.10 | 75 | 1013.2 |
| 20260904164657 | 86 | 25 | 0.0 | 3.0 | 0.00 | 0.24 | 0.10 | 70 | 1013.2 |
| 20260904164326 | 86 | 51 | 0.0 | 3.0 | 0.00 | 0.24 | 0.10 | 72 | 1013.3 |
| 20260904163739 | 85 | 275 | 0.0 | 3.0 | 0.00 | 0.24 | 0.10 | 74 | 1013.4 |
| 20260904163636 | 85 | 103 | 0.0 | 3.0 | 0.00 | 0.24 | 0.10 | 75 | 1013.4 |
| 20260904163531 | 85 | 287 | 0.0 | 3.0 | 0.00 | 0.24 | 0.10 | 75 | 1013.4 |
| 20260904163425 | 85 | 74 | 0.0 | 3.0 | 0.00 | 0.24 | 0.10 | 74 | 1013.4 |
| 20260904163319 | 85 | 355 | 0.0 | 3.0 | 0.00 | 0.24 | 0.10 | 73 | 1013.4 |
| 20260904163212 | 85 | 15 | 0.0 | 3.0 | 0.00 | 0.24 | 0.10 | 73 | 1013.4 |
| 20260904163105 | 85 | 38 | 0.0 | 3.0 | 0.00 | 0.24 | 0.10 | 75 | 1013.5 |
| 20260904162959 | 85 | 69 | 0.0 | 4.0 | 0.00 | 0.24 | 0.10 | 73 | 1013.5 |
| 20260904162853 | 85 | 27 | 0.0 | 4.0 | 0.00 | 0.24 | 0.10 | 72 | 1013.5 |
| 20260904162749 | 85 | 204 | 0.0 | 4.0 | 0.00 | 0.24 | 0.10 | 74 | 1013.5 |
| 20260904162644 | 85 | 170 | 0.0 | 4.0 | 0.00 | 0.24 | 0.10 | 73 | 1013.5 |
| 20260904162542 | 86 | 332 | 0.0 | 4.0 | 0.00 | 0.24 | 0.10 | 72 | 1013.5 |
| 20260904162436 | 85 | 242 | 0.0 | 4.0 | 0.00 | 0.24 | 0.10 | 76 | 1013.5 |
| 20260904162112 | 85 | 238 | 0.0 | 4.0 | 0.00 | 0.24 | 0.10 | 73 | 1013.5 |
| 20260904162008 | 85 | 59 | 0.0 | 4.0 | 0.00 | 0.24 | 0.10 | 75 | 1013.5 |
| 20260904161906 | 85 | 125 | 1.0 | 4.0 | 0.00 | 0.24 | 0.10 | 73 | 1013.5 |
| 20260904161758 | 85 | 249 | 1.0 | 4.0 | 0.00 | 0.24 | 0.10 | 72 | 1013.5 |
| 20260904161656 | 85 | 205 | 1.0 | 4.0 | 0.00 | 0.24 | 0.10 | 77 | 1013.4 |
| 20260904161551 | 85 | 57 | 0.0 | 4.0 | 0.00 | 0.24 | 0.10 | 76 | 1013.5 |
| 20260904161444 | 85 | 9 | 0.0 | 4.0 | 0.00 | 0.24 | 0.10 | 75 | 1013.5 |
| 20260904161338 | 85 | 282 | 0.0 | 4.0 | 0.00 | 0.24 | 0.10 | 76 | 1013.5 |
| 20260904161234 | 85 | 19 | 0.0 | 4.0 | 0.00 | 0.24 | 0.10 | 77 | 1013.5 |
| 20260904161132 | 85 | 318 | 0.0 | 4.0 | 0.00 | 0.24 | 0.10 | 77 | 1013.4 |
| 20260904161030 | 85 | 258 | 0.0 | 3.0 | 0.00 | 0.24 | 0.10 | 78 | 1013.5 |
| 20260904160704 | 85 | 20 | 0.0 | 3.0 | 0.00 | 0.24 | 0.10 | 74 | 1013.5 |
| 20260904160602 | 85 | 340 | 0.0 | 3.0 | 0.00 | 0.24 | 0.10 | 70 | 1013.5 |
| 20260904160455 | 86 | 18 | 0.0 | 3.0 | 0.00 | 0.24 | 0.10 | 70 | 1013.4 |
| 20260904160349 | 85 | 95 | 0.0 | 3.0 | 0.00 | 0.24 | 0.10 | 70 | 1013.4 |
| 20260904160247 | 86 | 248 | 0.0 | 3.0 | 0.00 | 0.24 | 0.10 | 72 | 1013.4 |
| 20260904160139 | 86 | 215 | 0.0 | 3.0 | 0.00 | 0.24 | 0.10 | 70 | 1013.5 |
| 20260904155555 | 86 | 234 | 0.0 | 2.0 | 0.00 | 0.24 | 0.10 | 75 | 1013.5 |
| 20260904155449 | 86 | 118 | 0.0 | 2.0 | 0.00 | 0.24 | 0.10 | 72 | 1013.5 |
| 20260904155343 | 85 | 122 | 0.0 | 4.0 | 0.00 | 0.24 | 0.10 | 75 | 1013.4 |
| 20260904155017 | 85 | 265 | 0.0 | 4.0 | 0.00 | 0.24 | 0.10 | 73 | 1013.5 |
| 20260904154909 | 85 | 104 | 0.0 | 4.0 | 0.00 | 0.24 | 0.10 | 70 | 1013.5 |
| 20260904154540 | 85 | 343 | 1.0 | 4.0 | 0.00 | 0.24 | 0.10 | 74 | 1013.5 |
| 20260904154434 | 85 | 5 | 1.0 | 4.0 | 0.00 | 0.24 | 0.10 | 74 | 1013.5 |
| 20260904154328 | 85 | 40 | 1.0 | 4.0 | 0.00 | 0.24 | 0.10 | 74 | 1013.5 |
| 20260904154223 | 85 | 120 | 1.0 | 4.0 | 0.00 | 0.24 | 0.10 | 71 | 1013.5 |
| 20260904154118 | 85 | 5 | 1.0 | 4.0 | 0.00 | 0.24 | 0.10 | 76 | 1013.6 |
| 20260904154014 | 85 | 148 | 1.0 | 4.0 | 0.00 | 0.24 | 0.10 | 75 | 1013.6 |
| 20260904153907 | 84 | 266 | 1.0 | 4.0 | 0.00 | 0.24 | 0.10 | 76 | 1013.6 |
| 20260904153544 | 84 | 73 | 0.0 | 4.0 | 0.00 | 0.24 | 0.10 | 78 | 1013.6 |
| 20260904153438 | 85 | 63 | 0.0 | 4.0 | 0.00 | 0.24 | 0.10 | 76 | 1013.7 |
| 20260904153335 | 85 | 42 | 0.0 | 2.0 | 0.00 | 0.24 | 0.10 | 77 | 1013.7 |
| 20260904153228 | 85 | 40 | 0.0 | 2.0 | 0.00 | 0.24 | 0.10 | 74 | 1013.6 |
| 20260904153126 | 84 | 5 | 0.0 | 2.0 | 0.00 | 0.24 | 0.10 | 75 | 1013.7 |
| 20260904152541 | 84 | 211 | 0.0 | 2.0 | 0.00 | 0.24 | 0.10 | 80 | 1013.7 |
| 20260904152438 | 84 | 28 | 0.0 | 2.0 | 0.00 | 0.24 | 0.10 | 77 | 1013.7 |
| 20260904152332 | 84 | 5 | 0.0 | 2.0 | 0.00 | 0.24 | 0.10 | 79 | 1013.6 |
| 20260904152226 | 84 | 57 | 0.0 | 2.0 | 0.00 | 0.24 | 0.10 | 79 | 1013.7 |
| 20260904152119 | 83 | 128 | 0.0 | 2.0 | 0.00 | 0.24 | 0.10 | 77 | 1013.7 |
| 20260904152016 | 84 | 244 | 0.0 | 2.0 | 0.00 | 0.24 | 0.10 | 78 | 1013.7 |
| 20260904151432 | 83 | 339 | 0.0 | 4.0 | 0.00 | 0.24 | 0.10 | 82 | 1013.6 |
| 20260904151327 | 82 | 5 | 0.0 | 4.0 | 0.00 | 0.24 | 0.10 | 83 | 1013.7 |
| 20260904151224 | 82 | 303 | 0.0 | 4.0 | 0.00 | 0.24 | 0.10 | 81 | 1013.7 |
| 20260904151120 | 83 | 26 | 0.0 | 4.0 | 0.00 | 0.24 | 0.10 | 82 | 1013.7 |
| 20260904151013 | 83 | 327 | 0.0 | 4.0 | 0.00 | 0.24 | 0.10 | 79 | 1013.7 |
| 20260904150909 | 83 | 271 | 0.0 | 4.0 | 0.00 | 0.24 | 0.10 | 81 | 1013.6 |
| 20260904150318 | 82 | 31 | 0.0 | 5.0 | 0.00 | 0.24 | 0.10 | 77 | 1013.6 |
| 20260904150215 | 82 | 0 | 0.0 | 5.0 | 0.00 | 0.24 | 0.10 | 80 | 1013.6 |
| 20260904145847 | 81 | 342 | 0.0 | 5.0 | 0.00 | 0.24 | 0.10 | 84 | 1013.6 |
| 20260904145744 | 81 | 156 | 0.0 | 5.0 | 0.00 | 0.24 | 0.10 | 84 | 1013.6 |
| 20260904145642 | 81 | 259 | 0.0 | 5.0 | 0.00 | 0.24 | 0.10 | 85 | 1013.7 |
| 20260904145535 | 81 | 275 | 0.0 | 5.0 | 0.00 | 0.24 | 0.10 | 81 | 1013.6 |
| 20260904145207 | 81 | 300 | 0.0 | 5.0 | 0.00 | 0.24 | 0.10 | 84 | 1013.8 |
| 20260904144839 | 81 | 324 | 0.0 | 2.0 | 0.00 | 0.24 | 0.10 | 84 | 1013.9 |
| 20260904144736 | 81 | 11 | 0.0 | 2.0 | 0.00 | 0.24 | 0.10 | 83 | 1013.8 |
| 20260904144629 | 81 | 304 | 0.0 | 2.0 | 0.00 | 0.24 | 0.10 | 81 | 1013.8 |
| 20260904144527 | 81 | 85 | 0.0 | 2.0 | 0.00 | 0.24 | 0.10 | 82 | 1013.8 |
| 20260904144202 | 81 | 355 | 0.0 | 2.0 | 0.00 | 0.24 | 0.10 | 80 | 1013.9 |
| 20260904144059 | 81 | 355 | 0.0 | 2.0 | 0.00 | 0.24 | 0.10 | 82 | 1013.9 |
| 20260904143730 | 81 | 333 | 0.0 | 2.0 | 0.00 | 0.24 | 0.10 | 83 | 1013.8 |
| 20260904143625 | 81 | 332 | 0.0 | 2.0 | 0.00 | 0.24 | 0.10 | 86 | 1013.8 |
| 20260904143517 | 81 | 0 | 0.0 | 2.0 | 0.00 | 0.24 | 0.10 | 85 | 1013.9 |
| 20260904143414 | 81 | 0 | 0.0 | 2.0 | 0.00 | 0.24 | 0.10 | 84 | 1013.8 |
| 20260904143311 | 81 | 49 | 0.0 | 2.0 | 0.00 | 0.24 | 0.10 | 83 | 1013.9 |
| 20260904143204 | 81 | 232 | 0.0 | 2.0 | 0.00 | 0.24 | 0.10 | 83 | 1013.9 |
| 20260904143058 | 81 | 295 | 0.0 | 2.0 | 0.00 | 0.24 | 0.10 | 83 | 1013.9 |
| 20260904142955 | 81 | 288 | 0.0 | 2.0 | 0.00 | 0.24 | 0.10 | 81 | 1013.9 |
| 20260904142851 | 81 | 213 | 0.0 | 2.0 | 0.00 | 0.24 | 0.10 | 84 | 1013.9 |
| 20260904142748 | 80 | 292 | 0.0 | 2.0 | 0.00 | 0.24 | 0.10 | 85 | 1013.9 |
| 20260904142644 | 80 | 290 | 0.0 | 2.0 | 0.00 | 0.24 | 0.10 | 86 | 1013.9 |
| 20260904142539 | 80 | 78 | 0.0 | 2.0 | 0.00 | 0.24 | 0.10 | 88 | 1014.0 |
| 20260904142435 | 80 | 217 | 0.0 | 2.0 | 0.00 | 0.24 | 0.10 | 88 | 1013.9 |
| 20260904142329 | 80 | 10 | 0.0 | 2.0 | 0.00 | 0.24 | 0.10 | 87 | 1013.9 |
| 20260904142222 | 80 | 264 | 0.0 | 2.0 | 0.00 | 0.24 | 0.10 | 87 | 1013.9 |
| 20260904142117 | 80 | 155 | 0.0 | 2.0 | 0.00 | 0.24 | 0.10 | 88 | 1013.9 |
| 20260904141754 | 79 | 355 | 0.0 | 2.0 | 0.00 | 0.24 | 0.10 | 90 | 1013.9 |
| 20260904141646 | 79 | 325 | 0.0 | 1.0 | 0.00 | 0.24 | 0.10 | 90 | 1013.9 |
| 20260904141542 | 79 | 332 | 0.0 | 1.0 | 0.00 | 0.24 | 0.10 | 90 | 1013.9 |
| 20260904141436 | 79 | 340 | 0.0 | 0.0 | 0.00 | 0.24 | 0.10 | 89 | 1013.9 |
| 20260904141333 | 79 | 340 | 0.0 | 1.0 | 0.00 | 0.24 | 0.10 | 89 | 1013.8 |
| 20260904141225 | 79 | 340 | 0.0 | 1.0 | 0.00 | 0.24 | 0.10 | 89 | 1013.8 |
| 20260904141119 | 79 | 340 | 0.0 | 1.0 | 0.00 | 0.24 | 0.10 | 89 | 1013.8 |
| 20260904141016 | 78 | 340 | 0.0 | 1.0 | 0.00 | 0.24 | 0.10 | 90 | 1013.8 |
| 20260904140914 | 79 | 327 | 0.0 | 1.0 | 0.00 | 0.24 | 0.10 | 91 | 1013.8 |
| 20260904140807 | 78 | 175 | 0.0 | 1.0 | 0.00 | 0.24 | 0.10 | 92 | 1013.8 |
| 20260904140659 | 78 | 261 | 0.0 | 1.0 | 0.00 | 0.24 | 0.10 | 93 | 1013.9 |
| 20260904140556 | 78 | 96 | 0.0 | 1.0 | 0.00 | 0.24 | 0.10 | 93 | 1013.9 |
| 20260904140232 | 78 | 292 | 0.0 | 0.0 | 0.00 | 0.24 | 0.10 | 93 | 1013.9 |
| 20260904140125 | 78 | 292 | 0.0 | 0.0 | 0.00 | 0.24 | 0.10 | 93 | 1013.9 |
| 20260904140023 | 78 | 292 | 0.0 | 0.0 | 0.00 | 0.24 | 0.10 | 94 | 1013.9 |
| 20260904135654 | 77 | 292 | 0.0 | 0.0 | 0.00 | 0.24 | 0.10 | 93 | 1013.9 |
| 20260904135549 | 77 | 292 | 0.0 | 0.0 | 0.00 | 0.24 | 0.10 | 94 | 1013.9 |
| 20260904135444 | 77 | 292 | 0.0 | 0.0 | 0.00 | 0.24 | 0.10 | 94 | 1013.9 |
| 20260904135340 | 77 | 292 | 0.0 | 0.0 | 0.00 | 0.24 | 0.10 | 94 | 1013.9 |
| 20260904135236 | 77 | 292 | 0.0 | 0.0 | 0.00 | 0.24 | 0.10 | 94 | 1013.9 |
| 20260904134906 | 76 | 224 | 0.0 | 0.0 | 0.00 | 0.24 | 0.10 | 94 | 1013.9 |
| 20260904134802 | 76 | 224 | 0.0 | 0.0 | 0.00 | 0.24 | 0.10 | 94 | 1013.9 |
| 20260904134439 | 76 | 224 | 0.0 | 0.0 | 0.00 | 0.24 | 0.10 | 95 | 1013.9 |
| 20260904134115 | 76 | 224 | 0.0 | 0.0 | 0.00 | 0.24 | 0.10 | 96 | 1014.0 |
| 20260904134012 | 76 | 275 | 0.0 | 0.0 | 0.00 | 0.24 | 0.10 | 97 | 1013.9 |
| 20260904133906 | 76 | 343 | 0.0 | 0.0 | 0.00 | 0.24 | 0.10 | 96 | 1013.9 |
| 20260904133802 | 75 | 343 | 0.0 | 0.0 | 0.00 | 0.24 | 0.10 | 96 | 1013.9 |
| 20260904133656 | 75 | 343 | 0.0 | 0.0 | 0.00 | 0.24 | 0.10 | 96 | 1013.9 |
| 20260904133550 | 75 | 343 | 0.0 | 0.0 | 0.00 | 0.24 | 0.10 | 96 | 1013.9 |
| 20260904133443 | 75 | 343 | 0.0 | 0.0 | 0.00 | 0.24 | 0.10 | 97 | 1013.9 |
| 20260904133338 | 75 | 343 | 0.0 | 0.0 | 0.00 | 0.24 | 0.10 | 97 | 1013.9 |
| 20260904133234 | 75 | 343 | 0.0 | 0.0 | 0.00 | 0.24 | 0.10 | 97 | 1013.8 |
| 20260904133128 | 75 | 343 | 0.0 | 0.0 | 0.00 | 0.24 | 0.10 | 97 | 1013.9 |
| 20260904132802 | 75 | 343 | 0.0 | 0.0 | 0.00 | 0.24 | 0.10 | 97 | 1013.9 |
| 20260904132658 | 74 | 343 | 0.0 | 0.0 | 0.00 | 0.24 | 0.10 | 98 | 1013.9 |
| 20260904132553 | 74 | 343 | 0.0 | 0.0 | 0.00 | 0.24 | 0.10 | 98 | 1013.8 |
| 20260904132451 | 74 | 343 | 0.0 | 0.0 | 0.00 | 0.24 | 0.10 | 97 | 1013.8 |
| 20260904132347 | 74 | 343 | 0.0 | 0.0 | 0.00 | 0.24 | 0.10 | 97 | 1013.8 |
| 20260904132021 | 74 | 343 | 0.0 | 0.0 | 0.00 | 0.24 | 0.10 | 98 | 1013.7 |
| 20260904131437 | 74 | 343 | 0.0 | 0.0 | 0.00 | 0.24 | 0.10 | 98 | 1014.0 |
| 20260904131330 | 74 | 343 | 0.0 | 0.0 | 0.00 | 0.24 | 0.10 | 98 | 1014.1 |
| 20260904131223 | 73 | 343 | 0.0 | 0.0 | 0.00 | 0.24 | 0.10 | 98 | 1014.0 |
| 20260904131116 | 73 | 343 | 0.0 | 0.0 | 0.00 | 0.24 | 0.10 | 98 | 1014.1 |
| 20260904131009 | 73 | 343 | 0.0 | 0.0 | 0.00 | 0.24 | 0.10 | 98 | 1014.0 |
| 20260904130901 | 73 | 343 | 0.0 | 0.0 | 0.00 | 0.24 | 0.10 | 98 | 1014.0 |
| 20260904130755 | 73 | 343 | 0.0 | 0.0 | 0.00 | 0.24 | 0.10 | 98 | 1014.0 |
| 20260904130431 | 72 | 343 | 0.0 | 0.0 | 0.00 | 0.24 | 0.10 | 97 | 1014.0 |
| 20260904130327 | 72 | 343 | 0.0 | 0.0 | 0.00 | 0.24 | 0.10 | 97 | 1014.0 |
| 20260904130224 | 72 | 343 | 0.0 | 0.0 | 0.00 | 0.24 | 0.10 | 97 | 1014.0 |
| 20260904125900 | 72 | 343 | 0.0 | 0.0 | 0.00 | 0.24 | 0.10 | 97 | 1014.0 |
| 20260904125758 | 72 | 343 | 0.0 | 0.0 | 0.00 | 0.24 | 0.10 | 97 | 1014.0 |
| 20260904125654 | 72 | 343 | 0.0 | 0.0 | 0.00 | 0.24 | 0.10 | 98 | 1014.0 |
| 20260904125550 | 72 | 343 | 0.0 | 0.0 | 0.00 | 0.24 | 0.10 | 98 | 1014.0 |
| 20260904125445 | 72 | 343 | 0.0 | 0.0 | 0.00 | 0.24 | 0.10 | 97 | 1014.0 |
| 20260904125343 | 72 | 343 | 0.0 | 0.0 | 0.00 | 0.24 | 0.10 | 97 | 1014.0 |
| 20260904125239 | 72 | 343 | 0.0 | 1.0 | 0.00 | 0.24 | 0.10 | 97 | 1014.0 |
| 20260904125132 | 72 | 343 | 0.0 | 1.0 | 0.00 | 0.24 | 0.10 | 97 | 1014.1 |
| 20260904125031 | 71 | 343 | 0.0 | 0.0 | 0.00 | 0.24 | 0.10 | 97 | 1014.1 |
| 20260904124708 | 71 | 343 | 0.0 | 0.0 | 0.00 | 0.24 | 0.10 | 97 | 1014.2 |
| 20260904124602 | 71 | 343 | 0.0 | 0.0 | 0.00 | 0.24 | 0.10 | 97 | 1014.3 |
| 20260904124456 | 71 | 343 | 0.0 | 0.0 | 0.00 | 0.24 | 0.10 | 97 | 1014.3 |
| 20260904124349 | 71 | 343 | 0.0 | 0.0 | 0.00 | 0.24 | 0.10 | 97 | 1014.3 |
| 20260904124244 | 71 | 343 | 0.0 | 0.0 | 0.00 | 0.24 | 0.10 | 97 | 1014.2 |
| 20260904124142 | 71 | 343 | 0.0 | 0.0 | 0.00 | 0.24 | 0.10 | 97 | 1014.2 |
| 20260904123821 | 71 | 343 | 0.0 | 0.0 | 0.00 | 0.24 | 0.10 | 97 | 1014.2 |
| 20260904123715 | 71 | 343 | 0.0 | 0.0 | 0.00 | 0.24 | 0.10 | 97 | 1014.2 |
| 20260904123610 | 71 | 343 | 0.0 | 0.0 | 0.00 | 0.24 | 0.10 | 97 | 1014.1 |
| 20260904123504 | 71 | 343 | 0.0 | 0.0 | 0.00 | 0.24 | 0.10 | 97 | 1014.1 |
| 20260904123401 | 71 | 343 | 0.0 | 0.0 | 0.00 | 0.24 | 0.10 | 97 | 1014.1 |
| 20260904123300 | 71 | 343 | 0.0 | 0.0 | 0.00 | 0.24 | 0.10 | 97 | 1014.1 |
| 20260904123156 | 71 | 343 | 0.0 | 0.0 | 0.00 | 0.24 | 0.10 | 97 | 1014.1 |
| 20260904123053 | 71 | 343 | 0.0 | 0.0 | 0.00 | 0.24 | 0.10 | 97 | 1014.1 |
| 20260904122947 | 71 | 343 | 0.0 | 0.0 | 0.00 | 0.24 | 0.10 | 97 | 1014.1 |
| 20260904122623 | 71 | 343 | 0.0 | 0.0 | 0.00 | 0.24 | 0.10 | 97 | 1014.0 |
| 20260904122043 | 70 | 343 | 0.0 | 0.0 | 0.00 | 0.24 | 0.10 | 97 | 1013.9 |
| 20260904121937 | 70 | 343 | 0.0 | 0.0 | 0.00 | 0.24 | 0.10 | 97 | 1013.9 |
| 20260904121834 | 70 | 343 | 0.0 | 0.0 | 0.00 | 0.24 | 0.10 | 97 | 1013.8 |
| 20260904121726 | 70 | 343 | 0.0 | 0.0 | 0.00 | 0.24 | 0.10 | 97 | 1013.8 |
| 20260904121619 | 70 | 343 | 0.0 | 0.0 | 0.00 | 0.24 | 0.10 | 97 | 1013.8 |
| 20260904121512 | 70 | 343 | 0.0 | 0.0 | 0.00 | 0.24 | 0.10 | 97 | 1013.8 |
| 20260904121408 | 70 | 343 | 0.0 | 0.0 | 0.00 | 0.24 | 0.10 | 97 | 1013.8 |
| 20260904121301 | 70 | 343 | 0.0 | 0.0 | 0.00 | 0.24 | 0.10 | 97 | 1013.8 |
| 20260904120936 | 70 | 343 | 0.0 | 0.0 | 0.00 | 0.24 | 0.10 | 97 | 1013.8 |
| 20260904120829 | 70 | 343 | 0.0 | 0.0 | 0.00 | 0.24 | 0.10 | 97 | 1013.8 |
| 20260904120725 | 70 | 343 | 0.0 | 0.0 | 0.00 | 0.24 | 0.10 | 97 | 1013.8 |
| 20260904120618 | 70 | 343 | 0.0 | 0.0 | 0.00 | 0.24 | 0.10 | 97 | 1013.8 |
| 20260904120511 | 70 | 343 | 0.0 | 0.0 | 0.00 | 0.24 | 0.10 | 97 | 1013.8 |
| 20260904120408 | 70 | 343 | 0.0 | 0.0 | 0.00 | 0.24 | 0.10 | 97 | 1013.8 |
| 20260904120303 | 70 | 343 | 0.0 | 0.0 | 0.00 | 0.24 | 0.10 | 97 | 1013.7 |
| 20260904120159 | 70 | 343 | 0.0 | 0.0 | 0.00 | 0.24 | 0.10 | 97 | 1013.6 |
| 20260904120055 | 70 | 343 | 0.0 | 0.0 | 0.00 | 0.24 | 0.10 | 97 | 1013.6 |
| 20260904115951 | 70 | 343 | 0.0 | 0.0 | 0.00 | 0.24 | 0.10 | 97 | 1013.7 |
| 20260904115847 | 70 | 343 | 0.0 | 0.0 | 0.00 | 0.24 | 0.10 | 97 | 1013.7 |
| 20260904115521 | 70 | 343 | 0.0 | 0.0 | 0.00 | 0.24 | 0.10 | 97 | 1013.7 |
| 20260904115416 | 70 | 343 | 0.0 | 0.0 | 0.00 | 0.24 | 0.10 | 97 | 1013.7 |
| 20260904115311 | 70 | 343 | 0.0 | 0.0 | 0.00 | 0.24 | 0.10 | 97 | 1013.7 |
| 20260904115205 | 70 | 343 | 0.0 | 0.0 | 0.00 | 0.24 | 0.10 | 97 | 1013.8 |
| 20260904115058 | 70 | 343 | 0.0 | 0.0 | 0.00 | 0.24 | 0.10 | 97 | 1013.8 |
| 20260904114953 | 70 | 343 | 0.0 | 0.0 | 0.00 | 0.24 | 0.10 | 97 | 1013.9 |
| 20260904114846 | 70 | 343 | 0.0 | 0.0 | 0.00 | 0.24 | 0.10 | 97 | 1013.8 |
| 20260904114741 | 70 | 343 | 0.0 | 0.0 | 0.00 | 0.24 | 0.10 | 97 | 1013.8 |
| 20260904114637 | 70 | 343 | 0.0 | 0.0 | 0.00 | 0.24 | 0.10 | 97 | 1013.8 |
| 20260904114528 | 70 | 343 | 0.0 | 0.0 | 0.00 | 0.24 | 0.10 | 97 | 1013.8 |
| 20260904114203 | 69 | 343 | 0.0 | 0.0 | 0.00 | 0.24 | 0.10 | 97 | 1013.9 |
| 20260904113837 | 69 | 343 | 0.0 | 0.0 | 0.00 | 0.24 | 0.10 | 97 | 1013.9 |
| 20260904113733 | 69 | 343 | 0.0 | 0.0 | 0.00 | 0.24 | 0.10 | 97 | 1013.9 |
| 20260904113406 | 69 | 343 | 0.0 | 0.0 | 0.00 | 0.24 | 0.10 | 97 | 1013.9 |
| 20260904113300 | 69 | 343 | 0.0 | 0.0 | 0.00 | 0.24 | 0.10 | 97 | 1014.0 |
| 20260904113154 | 69 | 343 | 0.0 | 0.0 | 0.00 | 0.24 | 0.10 | 97 | 1014.0 |
| 20260904113050 | 69 | 343 | 0.0 | 0.0 | 0.00 | 0.24 | 0.10 | 97 | 1013.9 |
| 20260904112946 | 69 | 343 | 0.0 | 0.0 | 0.00 | 0.24 | 0.10 | 96 | 1014.0 |
| 20260904112623 | 69 | 343 | 0.0 | 0.0 | 0.00 | 0.24 | 0.10 | 97 | 1014.0 |
| 20260904112258 | 69 | 343 | 0.0 | 0.0 | 0.00 | 0.24 | 0.10 | 96 | 1014.0 |
| 20260904112151 | 69 | 343 | 0.0 | 0.0 | 0.00 | 0.24 | 0.10 | 96 | 1014.0 |
| 20260904112046 | 69 | 343 | 0.0 | 0.0 | 0.00 | 0.24 | 0.10 | 96 | 1014.0 |
| 20260904111941 | 69 | 343 | 0.0 | 1.0 | 0.00 | 0.24 | 0.10 | 96 | 1013.9 |
| 20260904111835 | 69 | 343 | 0.0 | 1.0 | 0.00 | 0.24 | 0.10 | 96 | 1013.9 |
| 20260904111733 | 69 | 343 | 0.0 | 0.0 | 0.00 | 0.24 | 0.10 | 96 | 1013.9 |
| 20260904111630 | 69 | 343 | 0.0 | 0.0 | 0.00 | 0.24 | 0.10 | 96 | 1013.8 |
| 20260904111300 | 69 | 343 | 0.0 | 0.0 | 0.00 | 0.24 | 0.10 | 97 | 1013.7 |
| 20260904110936 | 69 | 343 | 0.0 | 0.0 | 0.00 | 0.24 | 0.10 | 96 | 1013.5 |
| 20260904110830 | 69 | 343 | 0.0 | 0.0 | 0.00 | 0.24 | 0.10 | 96 | 1013.5 |
| 20260904110724 | 69 | 343 | 0.0 | 0.0 | 0.00 | 0.24 | 0.10 | 96 | 1013.5 |
| 20260904110620 | 69 | 343 | 0.0 | 0.0 | 0.00 | 0.24 | 0.10 | 96 | 1013.4 |
| 20260904110515 | 69 | 343 | 0.0 | 0.0 | 0.00 | 0.24 | 0.10 | 96 | 1013.4 |
| 20260904110408 | 69 | 343 | 0.0 | 0.0 | 0.00 | 0.24 | 0.10 | 96 | 1013.4 |
| 20260904110303 | 69 | 343 | 0.0 | 0.0 | 0.00 | 0.24 | 0.10 | 96 | 1013.3 |
| 20260904110159 | 69 | 343 | 0.0 | 0.0 | 0.00 | 0.24 | 0.10 | 96 | 1013.4 |
| 20260904110056 | 69 | 343 | 0.0 | 0.0 | 0.00 | 0.24 | 0.10 | 96 | 1013.4 |
| 20260904105951 | 69 | 343 | 0.0 | 0.0 | 0.00 | 0.24 | 0.10 | 96 | 1013.4 |
| 20260904105847 | 69 | 343 | 0.0 | 0.0 | 0.00 | 0.24 | 0.10 | 96 | 1013.4 |
| 20260904105743 | 69 | 343 | 0.0 | 0.0 | 0.00 | 0.24 | 0.10 | 96 | 1013.5 |
| 20260904105639 | 69 | 343 | 0.0 | 0.0 | 0.00 | 0.24 | 0.10 | 96 | 1013.5 |
| 20260904105535 | 69 | 343 | 0.0 | 0.0 | 0.00 | 0.24 | 0.10 | 96 | 1013.4 |
| 20260904105428 | 69 | 343 | 0.0 | 0.0 | 0.00 | 0.24 | 0.10 | 96 | 1013.4 |
| 20260904105321 | 69 | 343 | 0.0 | 1.0 | 0.00 | 0.24 | 0.10 | 96 | 1013.5 |
| 20260904105215 | 69 | 343 | 0.0 | 1.0 | 0.00 | 0.24 | 0.10 | 96 | 1013.4 |
| 20260904105109 | 69 | 302 | 0.0 | 0.0 | 0.00 | 0.24 | 0.10 | 96 | 1013.3 |
| 20260904104741 | 69 | 326 | 0.0 | 1.0 | 0.00 | 0.24 | 0.10 | 96 | 1013.3 |
| 20260904104637 | 69 | 322 | 0.0 | 1.0 | 0.00 | 0.24 | 0.10 | 96 | 1013.3 |
| 20260904104533 | 69 | 25 | 0.0 | 0.0 | 0.00 | 0.24 | 0.10 | 96 | 1013.2 |
| 20260904103956 | 69 | 14 | 0.0 | 0.0 | 0.00 | 0.24 | 0.10 | 96 | 1013.1 |
| 20260904103850 | 69 | 14 | 0.0 | 1.0 | 0.00 | 0.24 | 0.10 | 96 | 1013.1 |
| 20260904103748 | 69 | 14 | 0.0 | 1.0 | 0.00 | 0.24 | 0.10 | 96 | 1013.1 |
| 20260904103643 | 69 | 14 | 0.0 | 1.0 | 0.00 | 0.24 | 0.10 | 96 | 1013.0 |
| 20260904103539 | 69 | 19 | 0.0 | 1.0 | 0.00 | 0.24 | 0.10 | 96 | 1013.0 |
| 20260904103431 | 69 | 52 | 0.0 | 0.0 | 0.00 | 0.24 | 0.10 | 96 | 1012.9 |
| 20260904103325 | 69 | 52 | 0.0 | 0.0 | 0.00 | 0.24 | 0.10 | 96 | 1012.9 |
| 20260904103222 | 69 | 52 | 0.0 | 0.0 | 0.00 | 0.24 | 0.10 | 96 | 1012.9 |
| 20260904103116 | 69 | 52 | 0.0 | 0.0 | 0.00 | 0.24 | 0.10 | 96 | 1013.0 |
| 20260904103013 | 69 | 52 | 0.0 | 0.0 | 0.00 | 0.24 | 0.10 | 96 | 1013.0 |
| 20260904102652 | 69 | 52 | 0.0 | 0.0 | 0.00 | 0.24 | 0.10 | 96 | 1012.8 |
| 20260904102550 | 70 | 57 | 0.0 | 0.0 | 0.00 | 0.24 | 0.10 | 96 | 1012.8 |
| 20260904102222 | 70 | 66 | 0.0 | 0.0 | 0.00 | 0.24 | 0.10 | 96 | 1012.8 |
| 20260904102116 | 70 | 66 | 0.0 | 0.0 | 0.00 | 0.24 | 0.10 | 96 | 1012.7 |
| 20260904102014 | 70 | 66 | 0.0 | 0.0 | 0.00 | 0.24 | 0.10 | 96 | 1012.7 |
| 20260904101650 | 70 | 66 | 0.0 | 0.0 | 0.00 | 0.24 | 0.10 | 96 | 1012.6 |
| 20260904101545 | 70 | 66 | 0.0 | 0.0 | 0.00 | 0.24 | 0.10 | 96 | 1012.6 |
| 20260904101443 | 70 | 66 | 0.0 | 0.0 | 0.00 | 0.24 | 0.10 | 96 | 1012.6 |
| 20260904101339 | 70 | 66 | 0.0 | 0.0 | 0.00 | 0.24 | 0.10 | 96 | 1012.6 |
| 20260904101234 | 70 | 66 | 0.0 | 0.0 | 0.00 | 0.24 | 0.10 | 96 | 1012.5 |
| 20260904101132 | 70 | 66 | 0.0 | 0.0 | 0.00 | 0.24 | 0.10 | 96 | 1012.6 |
| 20260904101026 | 70 | 66 | 0.0 | 0.0 | 0.00 | 0.24 | 0.10 | 96 | 1012.5 |
| 20260904100924 | 70 | 66 | 0.0 | 0.0 | 0.00 | 0.24 | 0.10 | 96 | 1012.5 |
| 20260904100822 | 70 | 66 | 0.0 | 0.0 | 0.00 | 0.24 | 0.10 | 96 | 1012.5 |
| 20260904100719 | 70 | 66 | 0.0 | 0.0 | 0.00 | 0.24 | 0.10 | 96 | 1012.5 |
| 20260904100613 | 70 | 66 | 0.0 | 0.0 | 0.00 | 0.24 | 0.10 | 96 | 1012.5 |
| 20260904100510 | 70 | 66 | 0.0 | 0.0 | 0.00 | 0.24 | 0.10 | 96 | 1012.5 |
| 20260904100404 | 70 | 66 | 0.0 | 0.0 | 0.00 | 0.24 | 0.10 | 96 | 1012.4 |
| 20260904100301 | 70 | 66 | 0.0 | 0.0 | 0.00 | 0.24 | 0.10 | 96 | 1012.5 |
| 20260904100159 | 70 | 66 | 0.0 | 0.0 | 0.00 | 0.24 | 0.10 | 96 | 1012.4 |
| 20260904100052 | 70 | 66 | 0.0 | 0.0 | 0.00 | 0.24 | 0.10 | 96 | 1012.4 |
| 20260904095948 | 70 | 66 | 0.0 | 0.0 | 0.00 | 0.24 | 0.10 | 96 | 1012.4 |
| 20260904095845 | 70 | 66 | 0.0 | 0.0 | 0.00 | 0.24 | 0.10 | 96 | 1012.4 |
| 20260904095738 | 70 | 66 | 0.0 | 0.0 | 0.00 | 0.24 | 0.10 | 96 | 1012.3 |
| 20260904095413 | 70 | 66 | 0.0 | 0.0 | 0.00 | 0.24 | 0.10 | 96 | 1012.4 |
| 20260904095053 | 70 | 82 | 0.0 | 0.0 | 0.00 | 0.24 | 0.10 | 96 | 1012.4 |
| 20260904094945 | 70 | 134 | 0.0 | 0.0 | 0.00 | 0.24 | 0.10 | 96 | 1012.3 |
| 20260904094619 | 70 | 134 | 0.0 | 0.0 | 0.00 | 0.24 | 0.10 | 96 | 1012.3 |
| 20260904094512 | 70 | 134 | 0.0 | 0.0 | 0.00 | 0.24 | 0.10 | 96 | 1012.3 |
| 20260904094406 | 70 | 134 | 0.0 | 0.0 | 0.00 | 0.24 | 0.10 | 96 | 1012.3 |
| 20260904094303 | 70 | 134 | 0.0 | 0.0 | 0.00 | 0.24 | 0.10 | 96 | 1012.3 |
| 20260904094158 | 70 | 134 | 0.0 | 0.0 | 0.00 | 0.24 | 0.10 | 96 | 1012.3 |
| 20260904094056 | 70 | 134 | 0.0 | 0.0 | 0.00 | 0.24 | 0.10 | 96 | 1012.3 |
| 20260904093950 | 70 | 134 | 0.0 | 0.0 | 0.00 | 0.24 | 0.10 | 96 | 1012.2 |
| 20260904093843 | 70 | 134 | 0.0 | 0.0 | 0.00 | 0.24 | 0.10 | 96 | 1012.2 |
| 20260904093258 | 70 | 134 | 0.0 | 0.0 | 0.00 | 0.24 | 0.10 | 96 | 1012.3 |
| 20260904093151 | 70 | 134 | 0.0 | 0.0 | 0.00 | 0.24 | 0.10 | 96 | 1012.3 |
| 20260904093046 | 70 | 134 | 0.0 | 0.0 | 0.00 | 0.24 | 0.10 | 96 | 1012.3 |
| 20260904092939 | 70 | 134 | 0.0 | 0.0 | 0.00 | 0.24 | 0.10 | 96 | 1012.4 |
| 20260904092837 | 70 | 134 | 0.0 | 0.0 | 0.00 | 0.24 | 0.10 | 96 | 1012.4 |
| 20260904092732 | 70 | 134 | 0.0 | 0.0 | 0.00 | 0.24 | 0.10 | 96 | 1012.5 |
| 20260904092631 | 70 | 134 | 0.0 | 0.0 | 0.00 | 0.24 | 0.10 | 96 | 1012.4 |
| 20260904092309 | 70 | 134 | 0.0 | 0.0 | 0.00 | 0.24 | 0.10 | 96 | 1012.5 |
| 20260904092201 | 70 | 134 | 0.0 | 0.0 | 0.00 | 0.24 | 0.10 | 96 | 1012.4 |
| 20260904091839 | 70 | 134 | 0.0 | 0.0 | 0.00 | 0.24 | 0.10 | 96 | 1012.4 |
| 20260904091732 | 70 | 134 | 0.0 | 0.0 | 0.00 | 0.24 | 0.10 | 96 | 1012.4 |
| 20260904091630 | 70 | 134 | 0.0 | 0.0 | 0.00 | 0.24 | 0.10 | 96 | 1012.4 |
| 20260904091528 | 70 | 134 | 0.0 | 0.0 | 0.00 | 0.24 | 0.10 | 96 | 1012.4 |
| 20260904091424 | 70 | 134 | 0.0 | 0.0 | 0.00 | 0.24 | 0.10 | 96 | 1012.4 |
| 20260904091320 | 70 | 134 | 0.0 | 0.0 | 0.00 | 0.24 | 0.10 | 96 | 1012.4 |
| 20260904091215 | 70 | 134 | 0.0 | 0.0 | 0.00 | 0.24 | 0.10 | 96 | 1012.4 |
| 20260904091110 | 70 | 134 | 0.0 | 0.0 | 0.00 | 0.24 | 0.10 | 96 | 1012.4 |
| 20260904091003 | 70 | 134 | 0.0 | 0.0 | 0.00 | 0.24 | 0.10 | 96 | 1012.5 |
| 20260904090636 | 70 | 134 | 0.0 | 0.0 | 0.00 | 0.24 | 0.10 | 96 | 1012.4 |
| 20260904090533 | 70 | 134 | 0.0 | 1.0 | 0.00 | 0.24 | 0.10 | 96 | 1012.4 |
| 20260904090204 | 70 | 221 | 0.0 | 0.0 | 0.00 | 0.24 | 0.10 | 96 | 1012.4 |
| 20260904090100 | 70 | 250 | 0.0 | 0.0 | 0.00 | 0.24 | 0.10 | 96 | 1012.4 |
| 20260904085958 | 70 | 250 | 0.0 | 0.0 | 0.00 | 0.24 | 0.10 | 96 | 1012.5 |
| 20260904085852 | 70 | 250 | 0.0 | 0.0 | 0.00 | 0.24 | 0.10 | 96 | 1012.4 |
| 20260904085747 | 70 | 250 | 0.0 | 0.0 | 0.00 | 0.24 | 0.10 | 96 | 1012.4 |
| 20260904085642 | 70 | 250 | 0.0 | 0.0 | 0.00 | 0.24 | 0.10 | 96 | 1012.4 |
| 20260904085535 | 70 | 250 | 0.0 | 0.0 | 0.00 | 0.24 | 0.10 | 96 | 1012.4 |
| 20260904085208 | 70 | 250 | 0.0 | 0.0 | 0.00 | 0.24 | 0.10 | 96 | 1012.4 |
| 20260904084845 | 70 | 250 | 0.0 | 0.0 | 0.00 | 0.24 | 0.10 | 96 | 1012.5 |
| 20260904084307 | 70 | 250 | 0.0 | 0.0 | 0.00 | 0.24 | 0.10 | 96 | 1012.5 |
| 20260904084202 | 70 | 250 | 0.0 | 0.0 | 0.00 | 0.24 | 0.10 | 96 | 1012.5 |
| 20260904084056 | 70 | 250 | 0.0 | 0.0 | 0.00 | 0.24 | 0.10 | 96 | 1012.5 |
| 20260904083948 | 70 | 250 | 0.0 | 0.0 | 0.00 | 0.24 | 0.10 | 96 | 1012.5 |
| 20260904083843 | 70 | 250 | 0.0 | 0.0 | 0.00 | 0.24 | 0.10 | 96 | 1012.6 |
| 20260904083737 | 70 | 250 | 0.0 | 0.0 | 0.00 | 0.24 | 0.10 | 96 | 1012.6 |
| 20260904083629 | 70 | 250 | 0.0 | 0.0 | 0.00 | 0.24 | 0.10 | 96 | 1012.6 |
| 20260904083524 | 70 | 250 | 0.0 | 0.0 | 0.00 | 0.24 | 0.10 | 96 | 1012.5 |
| 20260904083419 | 70 | 250 | 0.0 | 0.0 | 0.00 | 0.24 | 0.10 | 96 | 1012.6 |
| 20260904083314 | 70 | 250 | 0.0 | 0.0 | 0.00 | 0.24 | 0.10 | 96 | 1012.6 |
| 20260904083211 | 70 | 250 | 0.0 | 0.0 | 0.00 | 0.24 | 0.10 | 96 | 1012.7 |
| 20260904083108 | 70 | 250 | 0.0 | 0.0 | 0.00 | 0.24 | 0.10 | 96 | 1012.6 |
| 20260904083003 | 70 | 250 | 0.0 | 0.0 | 0.00 | 0.24 | 0.10 | 96 | 1012.6 |
| 20260904082857 | 70 | 250 | 0.0 | 0.0 | 0.00 | 0.24 | 0.10 | 96 | 1012.6 |
| 20260904082753 | 70 | 250 | 0.0 | 0.0 | 0.00 | 0.24 | 0.10 | 96 | 1012.6 |
| 20260904082649 | 70 | 250 | 0.0 | 0.0 | 0.00 | 0.24 | 0.10 | 96 | 1012.6 |
| 20260904082324 | 70 | 250 | 0.0 | 0.0 | 0.00 | 0.24 | 0.10 | 96 | 1012.6 |
| 20260904082221 | 70 | 250 | 0.0 | 0.0 | 0.00 | 0.24 | 0.10 | 96 | 1012.6 |
| 20260904081858 | 70 | 250 | 0.0 | 0.0 | 0.00 | 0.24 | 0.10 | 96 | 1012.7 |
| 20260904081751 | 70 | 250 | 0.0 | 0.0 | 0.00 | 0.24 | 0.10 | 96 | 1012.7 |
| 20260904081647 | 70 | 250 | 0.0 | 0.0 | 0.00 | 0.24 | 0.10 | 96 | 1012.7 |
| 20260904081544 | 70 | 250 | 0.0 | 0.0 | 0.00 | 0.24 | 0.10 | 96 | 1012.7 |
| 20260904081438 | 70 | 250 | 0.0 | 0.0 | 0.00 | 0.24 | 0.10 | 96 | 1012.7 |
| 20260904081110 | 70 | 250 | 0.0 | 0.0 | 0.00 | 0.24 | 0.10 | 96 | 1012.6 |
| 20260904081005 | 70 | 250 | 0.0 | 0.0 | 0.00 | 0.24 | 0.10 | 96 | 1012.6 |
| 20260904080900 | 70 | 227 | 0.0 | 0.0 | 0.00 | 0.24 | 0.10 | 96 | 1012.5 |
| 20260904080757 | 70 | 227 | 0.0 | 0.0 | 0.00 | 0.24 | 0.10 | 96 | 1012.5 |
| 20260904080651 | 70 | 227 | 0.0 | 0.0 | 0.00 | 0.24 | 0.10 | 96 | 1012.4 |
| 20260904080549 | 70 | 227 | 0.0 | 0.0 | 0.00 | 0.24 | 0.10 | 96 | 1012.4 |
| 20260904080446 | 70 | 227 | 0.0 | 0.0 | 0.00 | 0.24 | 0.10 | 96 | 1012.4 |
| 20260904080344 | 70 | 227 | 0.0 | 0.0 | 0.00 | 0.24 | 0.10 | 96 | 1012.5 |
| 20260904080238 | 70 | 227 | 0.0 | 0.0 | 0.00 | 0.24 | 0.10 | 96 | 1012.4 |
| 20260904080130 | 70 | 227 | 0.0 | 0.0 | 0.00 | 0.24 | 0.10 | 96 | 1012.4 |
| 20260904080026 | 70 | 227 | 0.0 | 0.0 | 0.00 | 0.24 | 0.10 | 96 | 1012.4 |
| 20260904075918 | 70 | 227 | 0.0 | 0.0 | 0.00 | 0.24 | 0.10 | 96 | 1012.4 |
| 20260904075814 | 70 | 227 | 0.0 | 0.0 | 0.00 | 0.24 | 0.10 | 96 | 1012.5 |
| 20260904075708 | 70 | 227 | 0.0 | 0.0 | 0.00 | 0.24 | 0.10 | 96 | 1012.5 |
| 20260904075342 | 70 | 227 | 0.0 | 0.0 | 0.00 | 0.24 | 0.10 | 96 | 1012.5 |
| 20260904075236 | 70 | 227 | 0.0 | 0.0 | 0.00 | 0.24 | 0.10 | 96 | 1012.5 |
| 20260904075133 | 70 | 227 | 0.0 | 0.0 | 0.00 | 0.24 | 0.10 | 96 | 1012.5 |
| 20260904075028 | 70 | 227 | 0.0 | 0.0 | 0.00 | 0.24 | 0.10 | 96 | 1012.5 |
| 20260904074925 | 70 | 227 | 0.0 | 0.0 | 0.00 | 0.24 | 0.10 | 96 | 1012.5 |
| 20260904074823 | 70 | 227 | 0.0 | 0.0 | 0.00 | 0.24 | 0.10 | 96 | 1012.6 |
| 20260904074716 | 70 | 227 | 0.0 | 1.0 | 0.00 | 0.24 | 0.10 | 96 | 1012.6 |
| 20260904074348 | 70 | 190 | 0.0 | 1.0 | 0.00 | 0.24 | 0.10 | 96 | 1012.5 |
| 20260904074243 | 70 | 190 | 0.0 | 0.0 | 0.00 | 0.24 | 0.10 | 96 | 1012.5 |
| 20260904074135 | 70 | 190 | 0.0 | 0.0 | 0.00 | 0.24 | 0.10 | 96 | 1012.5 |
| 20260904074029 | 70 | 190 | 0.0 | 1.0 | 0.00 | 0.24 | 0.10 | 96 | 1012.5 |
| 20260904073927 | 70 | 190 | 0.0 | 1.0 | 0.00 | 0.24 | 0.10 | 96 | 1012.6 |
| 20260904073820 | 70 | 190 | 0.0 | 1.0 | 0.00 | 0.24 | 0.10 | 96 | 1012.6 |
| 20260904073022 | 70 | 190 | 0.0 | 0.0 | 0.00 | 0.24 | 0.10 | 96 | 1012.7 |
| 20260904072701 | 70 | 190 | 0.0 | 0.0 | 0.00 | 0.23 | 0.10 | 95 | 1012.7 |
| 20260904072557 | 70 | 190 | 0.0 | 0.0 | 0.00 | 0.23 | 0.10 | 95 | 1012.7 |
| 20260904072452 | 70 | 190 | 0.0 | 0.0 | 0.00 | 0.23 | 0.10 | 96 | 1012.6 |
| 20260904072344 | 70 | 190 | 0.0 | 0.0 | 0.00 | 0.23 | 0.10 | 96 | 1012.6 |
| 20260904072239 | 70 | 190 | 0.0 | 0.0 | 0.00 | 0.23 | 0.10 | 96 | 1012.6 |
| 20260904071911 | 70 | 190 | 0.0 | 0.0 | 0.00 | 0.23 | 0.10 | 96 | 1012.7 |
| 20260904071805 | 70 | 190 | 0.0 | 0.0 | 0.00 | 0.23 | 0.10 | 96 | 1012.7 |
| 20260904071657 | 70 | 190 | 0.0 | 0.0 | 0.00 | 0.23 | 0.10 | 96 | 1012.6 |
| 20260904071554 | 70 | 190 | 0.0 | 0.0 | 0.00 | 0.23 | 0.10 | 96 | 1012.6 |
| 20260904071449 | 70 | 190 | 0.0 | 0.0 | 0.00 | 0.23 | 0.10 | 96 | 1012.6 |
| 20260904071347 | 70 | 190 | 0.0 | 0.0 | 0.00 | 0.23 | 0.10 | 96 | 1012.5 |
| 20260904071241 | 70 | 190 | 0.0 | 0.0 | 0.00 | 0.23 | 0.10 | 95 | 1012.5 |
| 20260904070914 | 70 | 190 | 0.0 | 0.0 | 0.00 | 0.23 | 0.10 | 95 | 1012.6 |
| 20260904070810 | 70 | 190 | 0.0 | 0.0 | 0.00 | 0.23 | 0.10 | 95 | 1012.6 |
| 20260904070704 | 70 | 190 | 0.0 | 0.0 | 0.00 | 0.23 | 0.10 | 95 | 1012.6 |
| 20260904070559 | 70 | 190 | 0.0 | 0.0 | 0.00 | 0.23 | 0.10 | 95 | 1012.5 |
| 20260904070454 | 70 | 190 | 0.0 | 1.0 | 0.00 | 0.23 | 0.10 | 95 | 1012.5 |
| 20260904070131 | 70 | 190 | 0.0 | 1.0 | 0.00 | 0.23 | 0.10 | 95 | 1012.7 |
| 20260904065548 | 70 | 190 | 0.0 | 0.0 | 0.00 | 0.23 | 0.10 | 95 | 1012.4 |
| 20260904065441 | 70 | 190 | 0.0 | 0.0 | 0.00 | 0.23 | 0.10 | 95 | 1012.4 |
| 20260904065334 | 70 | 190 | 0.0 | 0.0 | 0.00 | 0.23 | 0.10 | 95 | 1012.4 |
| 20260904065227 | 71 | 190 | 0.0 | 0.0 | 0.00 | 0.23 | 0.10 | 95 | 1012.3 |
| 20260904065123 | 70 | 190 | 0.0 | 0.0 | 0.00 | 0.23 | 0.10 | 95 | 1012.2 |
| 20260904065019 | 71 | 190 | 0.0 | 0.0 | 0.00 | 0.23 | 0.10 | 95 | 1012.1 |
| 20260904064914 | 71 | 190 | 0.0 | 0.0 | 0.00 | 0.23 | 0.10 | 95 | 1012.1 |
| 20260904064549 | 71 | 190 | 0.0 | 0.0 | 0.00 | 0.23 | 0.10 | 95 | 1012.1 |
| 20260904064447 | 70 | 190 | 0.0 | 0.0 | 0.00 | 0.23 | 0.10 | 95 | 1012.1 |
| 20260904064341 | 71 | 190 | 0.0 | 0.0 | 0.00 | 0.23 | 0.10 | 95 | 1012.1 |
| 20260904064239 | 71 | 190 | 0.0 | 0.0 | 0.00 | 0.23 | 0.10 | 95 | 1012.1 |
| 20260904063917 | 71 | 190 | 0.0 | 0.0 | 0.00 | 0.23 | 0.10 | 95 | 1012.1 |
| 20260904063810 | 71 | 190 | 0.0 | 0.0 | 0.00 | 0.23 | 0.10 | 95 | 1012.1 |
| 20260904063706 | 71 | 190 | 0.0 | 0.0 | 0.00 | 0.23 | 0.10 | 95 | 1012.2 |
| 20260904063600 | 71 | 190 | 0.0 | 0.0 | 0.00 | 0.23 | 0.10 | 95 | 1012.2 |
| 20260904063455 | 71 | 190 | 0.0 | 0.0 | 0.00 | 0.23 | 0.10 | 95 | 1012.2 |
| 20260904063353 | 71 | 190 | 0.0 | 0.0 | 0.00 | 0.23 | 0.10 | 95 | 1012.2 |
| 20260904063032 | 71 | 190 | 0.0 | 0.0 | 0.00 | 0.23 | 0.10 | 95 | 1012.2 |
| 20260904062925 | 71 | 190 | 0.0 | 0.0 | 0.00 | 0.23 | 0.10 | 95 | 1012.2 |
| 20260904062820 | 71 | 190 | 0.0 | 0.0 | 0.00 | 0.23 | 0.10 | 95 | 1012.2 |
| 20260904062712 | 71 | 190 | 0.0 | 0.0 | 0.00 | 0.23 | 0.10 | 95 | 1012.2 |
| 20260904062607 | 71 | 190 | 0.0 | 0.0 | 0.00 | 0.23 | 0.10 | 95 | 1012.3 |
| 20260904062501 | 71 | 198 | 0.0 | 0.0 | 0.00 | 0.23 | 0.10 | 95 | 1012.3 |
| 20260904062137 | 71 | 73 | 0.0 | 0.0 | 0.00 | 0.23 | 0.10 | 95 | 1012.2 |
| 20260904061813 | 71 | 171 | 0.0 | 3.0 | 0.00 | 0.23 | 0.10 | 95 | 1012.2 |
| 20260904061229 | 71 | 191 | 0.0 | 3.0 | 0.00 | 0.23 | 0.10 | 95 | 1012.3 |
| 20260904061123 | 71 | 78 | 0.0 | 3.0 | 0.00 | 0.23 | 0.10 | 95 | 1012.2 |
| 20260904060538 | 71 | 184 | 0.0 | 0.0 | 0.00 | 0.23 | 0.10 | 95 | 1011.8 |
| 20260904060216 | 71 | 184 | 0.0 | 0.0 | 0.00 | 0.23 | 0.10 | 95 | 1011.7 |
| 20260904060110 | 71 | 184 | 0.0 | 0.0 | 0.00 | 0.23 | 0.10 | 95 | 1011.7 |
| 20260904060007 | 71 | 184 | 0.0 | 0.0 | 0.00 | 0.23 | 0.10 | 95 | 1011.7 |
| 20260904055902 | 71 | 184 | 0.0 | 0.0 | 0.00 | 0.23 | 0.10 | 95 | 1011.6 |
| 20260904055757 | 71 | 184 | 0.0 | 0.0 | 0.00 | 0.23 | 0.10 | 95 | 1011.6 |
| 20260904055654 | 71 | 184 | 0.0 | 1.0 | 0.00 | 0.23 | 0.10 | 95 | 1011.6 |
| 20260904055548 | 71 | 184 | 0.0 | 1.0 | 0.00 | 0.23 | 0.10 | 95 | 1011.5 |
| 20260904055223 | 71 | 203 | 0.0 | 1.0 | 0.00 | 0.23 | 0.10 | 95 | 1011.6 |
| 20260904055120 | 71 | 203 | 0.0 | 1.0 | 0.00 | 0.23 | 0.10 | 95 | 1011.5 |
| 20260904055014 | 71 | 289 | 0.0 | 1.0 | 0.00 | 0.23 | 0.10 | 95 | 1011.5 |
| 20260904054907 | 71 | 168 | 0.0 | 1.0 | 0.00 | 0.23 | 0.10 | 95 | 1011.3 |
| 20260904054805 | 71 | 281 | 0.0 | 1.0 | 0.00 | 0.23 | 0.10 | 95 | 1011.3 |
| 20260904054700 | 71 | 191 | 0.0 | 1.0 | 0.00 | 0.23 | 0.10 | 95 | 1011.2 |
| 20260904054556 | 71 | 205 | 0.0 | 1.0 | 0.00 | 0.23 | 0.10 | 95 | 1011.2 |
| 20260904054230 | 71 | 45 | 0.0 | 0.0 | 0.00 | 0.23 | 0.10 | 95 | 1011.3 |
| 20260904054122 | 71 | 45 | 0.0 | 1.0 | 0.00 | 0.23 | 0.10 | 95 | 1011.3 |
| 20260904054020 | 71 | 45 | 0.0 | 1.0 | 0.00 | 0.23 | 0.10 | 95 | 1011.4 |
| 20260904053435 | 71 | 188 | 0.0 | 0.0 | 0.00 | 0.23 | 0.10 | 95 | 1011.9 |
| 20260904053108 | 71 | 145 | 0.0 | 0.0 | 0.00 | 0.23 | 0.10 | 95 | 1012.0 |
| 20260904053004 | 71 | 145 | 0.0 | 0.0 | 0.04 | 0.23 | 0.10 | 95 | 1012.1 |
| 20260904052900 | 71 | 145 | 0.0 | 0.0 | 0.04 | 0.23 | 0.10 | 94 | 1012.1 |
| 20260904052532 | 71 | 145 | 0.0 | 0.0 | 0.05 | 0.23 | 0.10 | 94 | 1012.3 |
| 20260904052212 | 71 | 145 | 0.0 | 0.0 | 0.06 | 0.23 | 0.10 | 94 | 1012.5 |
| 20260904052109 | 71 | 145 | 0.0 | 0.0 | 0.08 | 0.23 | 0.10 | 94 | 1012.6 |
| 20260904052002 | 71 | 145 | 0.0 | 0.0 | 0.09 | 0.23 | 0.10 | 94 | 1012.6 |
| 20260904051900 | 71 | 145 | 0.0 | 0.0 | 0.12 | 0.23 | 0.10 | 94 | 1012.7 |
| 20260904051535 | 71 | 145 | 0.0 | 1.0 | 0.13 | 0.23 | 0.10 | 94 | 1013.0 |
| 20260904051428 | 71 | 145 | 0.0 | 1.0 | 0.13 | 0.23 | 0.10 | 94 | 1013.1 |
| 20260904051321 | 71 | 145 | 0.0 | 1.0 | 0.10 | 0.23 | 0.09 | 94 | 1013.3 |
| 20260904051218 | 71 | 145 | 0.0 | 1.0 | 0.10 | 0.23 | 0.09 | 94 | 1013.4 |
| 20260904051112 | 71 | 145 | 0.0 | 1.0 | 0.10 | 0.23 | 0.09 | 94 | 1013.4 |
| 20260904051004 | 71 | 145 | 0.0 | 1.0 | 0.10 | 0.22 | 0.09 | 94 | 1013.7 |
| 20260904050859 | 71 | 145 | 0.0 | 1.0 | 0.00 | 0.22 | 0.08 | 94 | 1013.7 |
| 20260904050757 | 71 | 145 | 0.0 | 1.0 | 0.00 | 0.22 | 0.08 | 94 | 1013.7 |
| 20260904050650 | 71 | 96 | 0.0 | 0.0 | 0.00 | 0.22 | 0.08 | 94 | 1013.8 |
| 20260904050547 | 71 | 96 | 0.0 | 0.0 | 0.00 | 0.22 | 0.08 | 94 | 1013.9 |
| 20260904050440 | 71 | 96 | 0.0 | 0.0 | 0.00 | 0.20 | 0.08 | 94 | 1013.9 |
| 20260904050335 | 71 | 96 | 0.0 | 0.0 | 0.00 | 0.20 | 0.06 | 94 | 1013.9 |
| 20260904050229 | 71 | 96 | 0.0 | 0.0 | 0.00 | 0.20 | 0.06 | 94 | 1014.1 |
| 20260904050126 | 71 | 96 | 0.0 | 0.0 | 0.00 | 0.20 | 0.06 | 94 | 1014.1 |
| 20260904050021 | 71 | 96 | 0.0 | 1.0 | 0.00 | 0.20 | 0.06 | 94 | 1014.1 |
| 20260904045918 | 71 | 96 | 0.0 | 1.0 | 0.04 | 0.20 | 0.06 | 94 | 1014.1 |
| 20260904045812 | 71 | 96 | 0.0 | 1.0 | 0.04 | 0.20 | 0.06 | 94 | 1014.2 |
| 20260904045707 | 72 | 96 | 0.0 | 1.0 | 0.04 | 0.20 | 0.06 | 94 | 1014.3 |
| 20260904045605 | 71 | 244 | 0.0 | 1.0 | 0.04 | 0.20 | 0.06 | 94 | 1014.5 |
| 20260904045501 | 72 | 244 | 0.0 | 1.0 | 0.05 | 0.20 | 0.06 | 94 | 1014.4 |
| 20260904045357 | 72 | 133 | 0.0 | 0.0 | 0.05 | 0.20 | 0.06 | 94 | 1014.2 |
| 20260904045032 | 72 | 133 | 0.0 | 0.0 | 0.08 | 0.20 | 0.06 | 94 | 1014.2 |
| 20260904044930 | 72 | 133 | 0.0 | 1.0 | 0.09 | 0.20 | 0.06 | 94 | 1014.3 |
| 20260904044822 | 72 | 133 | 0.0 | 1.0 | 0.10 | 0.20 | 0.06 | 94 | 1014.3 |
| 20260904044456 | 72 | 76 | 0.0 | 0.0 | 0.21 | 0.20 | 0.06 | 94 | 1014.5 |
| 20260904044129 | 72 | 76 | 0.0 | 3.0 | 0.36 | 0.18 | 0.06 | 94 | 1014.4 |
| 20260904044023 | 72 | 76 | 0.0 | 3.0 | 0.62 | 0.18 | 0.06 | 94 | 1014.4 |
| 20260904043919 | 72 | 76 | 0.0 | 3.0 | 0.84 | 0.16 | 0.05 | 94 | 1014.4 |
| 20260904043812 | 72 | 78 | 0.0 | 3.0 | 0.00 | 0.16 | 0.03 | 94 | 1014.5 |
| 20260904043707 | 72 | 95 | 0.0 | 3.0 | 0.00 | 0.16 | 0.02 | 94 | 1014.5 |
| 20260904043603 | 72 | 80 | 0.0 | 2.0 | 0.00 | 0.16 | 0.02 | 94 | 1014.9 |
| 20260904043457 | 72 | 345 | 0.0 | 2.0 | 0.00 | 0.16 | 0.02 | 94 | 1015.1 |
| 20260904043353 | 72 | 32 | 0.0 | 2.0 | 0.00 | 0.16 | 0.02 | 94 | 1015.0 |
| 20260904043249 | 72 | 254 | 0.0 | 2.0 | 0.00 | 0.16 | 0.02 | 94 | 1015.0 |
| 20260904043142 | 72 | 250 | 0.0 | 2.0 | 0.00 | 0.16 | 0.02 | 94 | 1014.8 |
| 20260904043035 | 72 | 101 | 0.0 | 2.0 | 0.00 | 0.16 | 0.02 | 94 | 1014.6 |
| 20260904042928 | 72 | 63 | 0.0 | 2.0 | 0.00 | 0.16 | 0.02 | 94 | 1014.7 |
| 20260904042824 | 72 | 80 | 0.0 | 2.0 | 0.00 | 0.16 | 0.02 | 94 | 1014.9 |
| 20260904042719 | 72 | 84 | 0.0 | 2.0 | 0.00 | 0.16 | 0.02 | 93 | 1015.0 |
| 20260904042613 | 72 | 186 | 0.0 | 2.0 | 0.00 | 0.16 | 0.02 | 93 | 1015.3 |
| 20260904042507 | 72 | 11 | 0.0 | 2.0 | 0.00 | 0.16 | 0.02 | 93 | 1015.3 |
| 20260904042405 | 72 | 297 | 0.0 | 2.0 | 0.00 | 0.16 | 0.02 | 93 | 1015.4 |
| 20260904042305 | 72 | 297 | 0.0 | 2.0 | 0.04 | 0.16 | 0.02 | 93 | 1015.4 |
| 20260904042155 | 72 | 61 | 0.0 | 2.0 | 0.04 | 0.16 | 0.02 | 93 | 1015.4 |
| 20260904042046 | 72 | 304 | 0.0 | 4.0 | 0.04 | 0.16 | 0.02 | 93 | 1015.3 |
| 20260904041719 | 72 | 284 | 0.0 | 4.0 | 0.06 | 0.16 | 0.02 | 92 | 1015.5 |
| 20260904041612 | 72 | 200 | 0.0 | 4.0 | 0.06 | 0.16 | 0.02 | 92 | 1015.4 |
| 20260904041506 | 73 | 300 | 0.0 | 4.0 | 0.06 | 0.16 | 0.02 | 92 | 1015.4 |
| 20260904041403 | 73 | 288 | 0.0 | 4.0 | 0.08 | 0.16 | 0.02 | 92 | 1015.4 |
| 20260904040825 | 73 | 336 | 1.0 | 6.0 | 0.09 | 0.13 | 0.02 | 91 | 1015.5 |
| 20260904040719 | 73 | 317 | 1.0 | 6.0 | 0.09 | 0.13 | 0.02 | 91 | 1015.5 |
| 20260904040614 | 73 | 316 | 1.0 | 6.0 | 0.10 | 0.13 | 0.01 | 91 | 1015.4 |
| 20260904040507 | 73 | 244 | 1.0 | 6.0 | 0.12 | 0.13 | 0.01 | 91 | 1015.4 |
| 20260904040401 | 74 | 19 | 1.0 | 6.0 | 0.15 | 0.13 | 0.01 | 91 | 1015.4 |
| 20260904040036 | 74 | 309 | 2.0 | 9.0 | 0.35 | 0.13 | 0.01 | 91 | 1015.4 |
| 20260904035933 | 74 | 21 | 2.0 | 9.0 | 0.32 | 0.13 | 0.13 | 91 | 1015.4 |
| 20260904035826 | 74 | 304 | 1.0 | 9.0 | 0.32 | 0.12 | 0.13 | 90 | 1015.3 |
| 20260904035505 | 75 | 122 | 1.0 | 9.0 | 0.25 | 0.10 | 0.10 | 89 | 1015.4 |
| 20260904035403 | 75 | 284 | 1.0 | 9.0 | 0.43 | 0.09 | 0.10 | 89 | 1015.5 |
| 20260904035256 | 76 | 263 | 1.0 | 9.0 | 0.52 | 0.09 | 0.10 | 89 | 1015.5 |
| 20260904035152 | 76 | 26 | 1.0 | 9.0 | 1.96 | 0.04 | 0.10 | 89 | 1015.5 |
| 20260904035048 | 76 | 9 | 1.0 | 9.0 | 2.23 | 0.03 | 0.06 | 89 | 1015.4 |
| 20260904034941 | 76 | 48 | 1.0 | 9.0 | 0.87 | 0.02 | 0.03 | 89 | 1015.3 |
| 20260904034616 | 77 | 355 | 1.0 | 9.0 | 0.00 | 0.01 | 0.01 | 87 | 1015.0 |
| 20260904034508 | 77 | 101 | 1.0 | 9.0 | 0.00 | 0.01 | 0.01 | 88 | 1014.7 |
| 20260904034405 | 77 | 238 | 2.0 | 9.0 | 0.00 | 0.01 | 0.01 | 89 | 1014.4 |
| 20260904034259 | 77 | 29 | 2.0 | 9.0 | 0.00 | 0.01 | 0.01 | 90 | 1014.5 |
| 20260904034157 | 78 | 46 | 1.0 | 9.0 | 0.00 | 0.01 | 0.01 | 90 | 1014.6 |
| 20260904034055 | 78 | 304 | 1.0 | 8.0 | 0.00 | 0.01 | 0.01 | 90 | 1014.5 |
| 20260904033950 | 78 | 113 | 1.0 | 8.0 | 0.00 | 0.01 | 0.01 | 91 | 1014.6 |
| 20260904033847 | 78 | 53 | 1.0 | 8.0 | 0.00 | 0.01 | 0.01 | 92 | 1014.5 |
| 20260904033743 | 78 | 73 | 1.0 | 8.0 | 0.00 | 0.01 | 0.01 | 92 | 1014.6 |
| 20260904033418 | 78 | 321 | 1.0 | 8.0 | 0.00 | 0.01 | 0.01 | 93 | 1014.6 |
| 20260904033312 | 79 | 96 | 0.0 | 5.0 | 0.00 | 0.01 | 0.01 | 94 | 1014.5 |
| 20260904033207 | 79 | 122 | 0.0 | 3.0 | 0.00 | 0.01 | 0.01 | 94 | 1014.2 |
| 20260904033059 | 79 | 9 | 0.0 | 3.0 | 0.00 | 0.01 | 0.01 | 95 | 1014.2 |
| 20260904032952 | 79 | 319 | 0.0 | 2.0 | 0.00 | 0.01 | 0.01 | 95 | 1013.8 |
| 20260904032846 | 79 | 344 | 0.0 | 2.0 | 0.00 | 0.01 | 0.01 | 95 | 1013.6 |
| 20260904032742 | 79 | 265 | 0.0 | 2.0 | 0.00 | 0.01 | 0.01 | 95 | 1013.4 |
| 20260904032637 | 79 | 65 | 0.0 | 2.0 | 0.00 | 0.01 | 0.01 | 95 | 1013.4 |
| 20260904032535 | 79 | 323 | 0.0 | 1.0 | 0.00 | 0.01 | 0.01 | 95 | 1013.4 |
| 20260904032430 | 79 | 300 | 0.0 | 0.0 | 0.00 | 0.01 | 0.01 | 95 | 1013.3 |
| 20260904032106 | 79 | 171 | 0.0 | 0.0 | 0.00 | 0.01 | 0.01 | 94 | 1013.3 |
| 20260904032003 | 79 | 171 | 0.0 | 0.0 | 0.00 | 0.01 | 0.01 | 94 | 1013.3 |
| 20260904031854 | 79 | 233 | 0.0 | 0.0 | 0.00 | 0.01 | 0.01 | 94 | 1013.3 |
| 20260904031749 | 79 | 233 | 0.0 | 0.0 | 0.00 | 0.01 | 0.01 | 94 | 1013.3 |
| 20260904031643 | 79 | 233 | 0.0 | 0.0 | 0.00 | 0.01 | 0.01 | 94 | 1013.3 |
| 20260904031541 | 79 | 233 | 0.0 | 2.0 | 0.00 | 0.01 | 0.01 | 94 | 1013.3 |
| 20260904031436 | 79 | 233 | 0.0 | 2.0 | 0.00 | 0.01 | 0.01 | 94 | 1013.3 |
| 20260904030847 | 79 | 233 | 0.0 | 2.0 | 0.00 | 0.01 | 0.01 | 94 | 1012.8 |
| 20260904030744 | 79 | 169 | 0.0 | 2.0 | 0.00 | 0.01 | 0.01 | 94 | 1012.8 |
| 20260904030422 | 79 | 166 | 0.0 | 2.0 | 0.00 | 0.01 | 0.01 | 94 | 1012.8 |
| 20260904030315 | 79 | 166 | 0.0 | 2.0 | 0.00 | 0.01 | 0.01 | 94 | 1012.8 |
| 20260904030207 | 79 | 166 | 0.0 | 2.0 | 0.00 | 0.01 | 0.01 | 94 | 1012.7 |
| 20260904030100 | 79 | 166 | 0.0 | 2.0 | 0.00 | 0.01 | 0.01 | 94 | 1012.7 |
| 20260904025734 | 79 | 74 | 0.0 | 1.0 | 0.00 | 0.01 | 0.01 | 94 | 1012.5 |
| 20260904025630 | 79 | 74 | 0.0 | 1.0 | 0.00 | 0.01 | 0.01 | 94 | 1012.5 |
| 20260904025525 | 79 | 74 | 0.0 | 1.0 | 0.00 | 0.01 | 0.01 | 94 | 1012.5 |
| 20260904025418 | 79 | 74 | 0.0 | 1.0 | 0.00 | 0.01 | 0.01 | 94 | 1012.5 |
| 20260904025314 | 79 | 74 | 0.0 | 1.0 | 0.00 | 0.01 | 0.01 | 94 | 1012.6 |
| 20260904025208 | 79 | 74 | 0.0 | 1.0 | 0.00 | 0.01 | 0.01 | 94 | 1012.6 |
| 20260904025105 | 79 | 74 | 0.0 | 1.0 | 0.00 | 0.01 | 0.01 | 94 | 1012.6 |
| 20260904024740 | 79 | 165 | 0.0 | 1.0 | 0.00 | 0.01 | 0.01 | 94 | 1012.6 |
| 20260904024633 | 79 | 155 | 0.0 | 1.0 | 0.00 | 0.01 | 0.01 | 94 | 1012.6 |
| 20260904024527 | 79 | 190 | 0.0 | 1.0 | 0.00 | 0.01 | 0.01 | 94 | 1012.7 |
| 20260904024420 | 79 | 190 | 0.0 | 1.0 | 0.00 | 0.01 | 0.01 | 93 | 1012.7 |
| 20260904024057 | 79 | 195 | 0.0 | 1.0 | 0.00 | 0.01 | 0.01 | 93 | 1012.8 |
| 20260904023955 | 79 | 219 | 0.0 | 1.0 | 0.00 | 0.01 | 0.01 | 93 | 1012.9 |
| 20260904023849 | 79 | 219 | 0.0 | 1.0 | 0.00 | 0.01 | 0.01 | 93 | 1013.0 |
| 20260904023742 | 79 | 219 | 0.0 | 1.0 | 0.00 | 0.01 | 0.01 | 93 | 1013.0 |
| 20260904023637 | 79 | 219 | 0.0 | 1.0 | 0.00 | 0.00 | 0.01 | 93 | 1013.1 |
| 20260904023535 | 79 | 219 | 0.0 | 1.0 | 0.00 | 0.00 | 0.00 | 93 | 1013.1 |
| 20260904023429 | 79 | 219 | 0.0 | 1.0 | 0.00 | 0.00 | 0.00 | 93 | 1013.1 |
| 20260904023322 | 79 | 219 | 0.0 | 1.0 | 0.00 | 0.00 | 0.00 | 93 | 1013.1 |
| 20260904023218 | 79 | 219 | 0.0 | 1.0 | 0.00 | 0.00 | 0.00 | 93 | 1013.1 |
| 20260904023115 | 79 | 219 | 0.0 | 1.0 | 0.00 | 0.00 | 0.00 | 93 | 1013.2 |
| 20260904022751 | 79 | 294 | 0.0 | 1.0 | 0.00 | 0.00 | 0.00 | 93 | 1013.2 |
| 20260904022200 | 79 | 294 | 0.0 | 0.0 | 0.00 | 0.00 | 0.00 | 92 | 1013.1 |
| 20260904022054 | 79 | 294 | 0.0 | 0.0 | 0.00 | 0.00 | 0.00 | 92 | 1013.1 |
| 20260904021949 | 79 | 294 | 0.0 | 0.0 | 0.00 | 0.00 | 0.00 | 92 | 1013.1 |
| 20260904021842 | 79 | 294 | 0.0 | 0.0 | 0.00 | 0.00 | 0.00 | 92 | 1013.0 |
| 20260904021736 | 79 | 294 | 0.0 | 0.0 | 0.00 | 0.00 | 0.00 | 92 | 1013.0 |
| 20260904021406 | 79 | 294 | 0.0 | 1.0 | 0.00 | 0.00 | 0.00 | 92 | 1013.2 |
| 20260904021259 | 79 | 351 | 0.0 | 1.0 | 0.00 | 0.00 | 0.00 | 92 | 1013.2 |
| 20260904021153 | 79 | 246 | 0.0 | 1.0 | 0.00 | 0.00 | 0.00 | 92 | 1013.2 |
| 20260904021045 | 79 | 292 | 0.0 | 0.0 | 0.00 | 0.00 | 0.00 | 92 | 1013.3 |
| 20260904020939 | 79 | 292 | 0.0 | 0.0 | 0.00 | 0.00 | 0.00 | 92 | 1013.3 |
| 20260904020833 | 79 | 290 | 0.0 | 0.0 | 0.00 | 0.00 | 0.00 | 92 | 1013.3 |
| 20260904020728 | 79 | 290 | 0.0 | 0.0 | 0.00 | 0.00 | 0.00 | 92 | 1013.3 |
| 20260904020623 | 80 | 244 | 0.0 | 0.0 | 0.00 | 0.00 | 0.00 | 92 | 1013.3 |
| 20260904020520 | 80 | 244 | 0.0 | 0.0 | 0.00 | 0.00 | 0.00 | 92 | 1013.2 |
| 20260904020414 | 80 | 244 | 0.0 | 0.0 | 0.00 | 0.00 | 0.00 | 92 | 1013.2 |
| 20260904020307 | 80 | 244 | 0.0 | 0.0 | 0.00 | 0.00 | 0.00 | 92 | 1013.3 |
| 20260904020204 | 80 | 244 | 0.0 | 0.0 | 0.00 | 0.00 | 0.00 | 92 | 1013.3 |
| 20260904020056 | 80 | 244 | 0.0 | 0.0 | 0.00 | 0.00 | 0.00 | 92 | 1013.3 |
| 20260904015953 | 80 | 244 | 0.0 | 0.0 | 0.00 | 0.00 | 0.00 | 92 | 1013.2 |
| 20260904015633 | 80 | 244 | 0.0 | 0.0 | 0.00 | 0.00 | 0.00 | 92 | 1013.1 |
| 20260904015525 | 80 | 244 | 0.0 | 0.0 | 0.00 | 0.00 | 0.00 | 92 | 1013.1 |
| 20260904014722 | 80 | 244 | 0.0 | 0.0 | 0.00 | 0.00 | 0.00 | 91 | 1013.2 |
| 20260904014617 | 80 | 244 | 0.0 | 0.0 | 0.00 | 0.00 | 0.00 | 91 | 1013.2 |
| 20260904014512 | 80 | 244 | 0.0 | 0.0 | 0.00 | 0.00 | 0.00 | 91 | 1013.3 |
| 20260904014405 | 80 | 244 | 0.0 | 0.0 | 0.00 | 0.00 | 0.00 | 91 | 1013.3 |
| 20260904014302 | 80 | 244 | 0.0 | 0.0 | 0.00 | 0.00 | 0.00 | 91 | 1013.2 |
| 20260904014156 | 80 | 244 | 0.0 | 0.0 | 0.00 | 0.00 | 0.00 | 91 | 1013.2 |
| 20260904014049 | 80 | 244 | 0.0 | 0.0 | 0.00 | 0.00 | 0.00 | 91 | 1013.1 |
| 20260904013941 | 80 | 244 | 0.0 | 0.0 | 0.00 | 0.00 | 0.00 | 91 | 1013.2 |
| 20260904013834 | 80 | 244 | 0.0 | 0.0 | 0.00 | 0.00 | 0.00 | 91 | 1013.2 |
| 20260904013725 | 80 | 244 | 0.0 | 0.0 | 0.00 | 0.00 | 0.00 | 91 | 1013.2 |
| 20260904013619 | 80 | 244 | 0.0 | 0.0 | 0.00 | 0.00 | 0.00 | 91 | 1013.2 |
| 20260904013515 | 80 | 244 | 0.0 | 0.0 | 0.00 | 0.00 | 0.00 | 91 | 1013.2 |
| 20260904013409 | 80 | 244 | 0.0 | 0.0 | 0.00 | 0.00 | 0.00 | 91 | 1013.2 |
| 20260904013048 | 80 | 244 | 0.0 | 0.0 | 0.00 | 0.00 | 0.00 | 91 | 1013.2 |
| 20260904012721 | 80 | 244 | 0.0 | 0.0 | 0.00 | 0.00 | 0.00 | 91 | 1013.2 |
| 20260904012616 | 80 | 244 | 0.0 | 0.0 | 0.00 | 0.00 | 0.00 | 91 | 1013.2 |
| 20260904012253 | 80 | 244 | 0.0 | 0.0 | 0.00 | 0.00 | 0.00 | 91 | 1013.0 |
| 20260904012151 | 80 | 244 | 0.0 | 0.0 | 0.00 | 0.00 | 0.00 | 91 | 1013.0 |
| 20260904011602 | 80 | 244 | 0.0 | 0.0 | 0.00 | 0.00 | 0.00 | 91 | 1013.0 |
| 20260904011458 | 80 | 244 | 0.0 | 0.0 | 0.00 | 0.00 | 0.00 | 90 | 1013.0 |
| 20260904011135 | 80 | 244 | 0.0 | 0.0 | 0.00 | 0.00 | 0.00 | 90 | 1013.0 |
| 20260904011030 | 80 | 244 | 0.0 | 0.0 | 0.00 | 0.00 | 0.00 | 90 | 1013.0 |
| 20260904010926 | 80 | 244 | 0.0 | 0.0 | 0.00 | 0.00 | 0.00 | 90 | 1013.0 |
| 20260904010822 | 81 | 244 | 0.0 | 0.0 | 0.00 | 0.00 | 0.00 | 90 | 1013.0 |
| 20260904010718 | 81 | 244 | 0.0 | 0.0 | 0.00 | 0.00 | 0.00 | 90 | 1013.0 |
| 20260904010612 | 81 | 244 | 0.0 | 0.0 | 0.00 | 0.00 | 0.00 | 90 | 1013.0 |
| 20260904010508 | 81 | 244 | 0.0 | 0.0 | 0.00 | 0.00 | 0.00 | 90 | 1013.0 |
| 20260904010402 | 81 | 244 | 0.0 | 0.0 | 0.00 | 0.00 | 0.00 | 90 | 1013.0 |
| 20260904010042 | 81 | 244 | 0.0 | 0.0 | 0.00 | 0.00 | 0.00 | 90 | 1013.0 |
| 20260904005935 | 81 | 244 | 0.0 | 0.0 | 0.00 | 0.00 | 0.00 | 90 | 1013.0 |
| 20260904005832 | 81 | 244 | 0.0 | 0.0 | 0.00 | 0.00 | 0.00 | 90 | 1013.0 |
| 20260904005507 | 81 | 244 | 0.0 | 0.0 | 0.00 | 0.00 | 0.00 | 90 | 1013.1 |
| 20260904005403 | 81 | 244 | 0.0 | 0.0 | 0.00 | 0.00 | 0.00 | 90 | 1013.2 |
| 20260904005257 | 81 | 244 | 0.0 | 0.0 | 0.00 | 0.00 | 0.00 | 90 | 1013.2 |
| 20260904005151 | 81 | 244 | 0.0 | 0.0 | 0.00 | 0.00 | 0.00 | 90 | 1013.2 |
| 20260904005045 | 81 | 244 | 0.0 | 0.0 | 0.00 | 0.00 | 0.00 | 90 | 1013.2 |
| 20260904004939 | 81 | 244 | 0.0 | 0.0 | 0.00 | 0.00 | 0.00 | 90 | 1013.1 |